[{"header": {"dx": 0.06612293990616946, "dy": 0.0552356325346848, "nx": 98, "ny": 59, "la1": 35.046912555036876, "la2": 31.78801023549047, "lo1": -121.43107172385933, "lo2": -114.95102361305473, "refTime": "2026040704", "parameterCategory": 1, "parameterNumber": 2}, "data": [7.61, 7.61, 7.61, 7.61, 7.61, 7.6, 7.6, 7.59, 6.97, 6.64, 6.28, 5.35, 3.22, 2.4, 1.6, 0.8, 0.45, 0.0, -0.63, 0.0, 0.0, 1.34, 2.24, 2.6, 3.04, 4.02, 4.47, 4.92, 4.41, 5.16, 6.28, 5.31, 3.51, 1.9, 1.9, 2.15, 2.68, 2.91, 1.9, 0.0, 0.0, 0.63, 1.98, 3.99, 7.27, 9.9, 12.87, 14.11, 9.9, 2.4, 2.4, 3.22, 3.9, 4.56, 5.59, 6.32, 7.02, 7.69, 8.24, 8.24, 8.55, 8.4, 7.47, 6.07, 5.46, 5.82, 6.08, 7.07, 8.24, 9.74, 10.27, 10.43, 9.83, 9.11, 8.63, 8.4, 8.91, 9.89, 10.93, 9.72, 7.45, 6.36, 5.44, 4.3, 3.51, 3.07, 3.04, 2.4, 2.6, 3.13, 3.97, 3.82, 4.3, 4.52, 4.93, 5.44, 4.11, 2.5, 7.61, 7.61, 7.61, 7.61, 7.32, 7.6, 7.3, 6.98, 6.97, 6.65, 5.71, 4.43, 3.22, 2.15, 3.2, 2.4, 0.6, 0.0, 0.0, -0.57, 0.0, 0.8, 2.12, 3.13, 3.58, 4.47, 4.02, 3.58, 3.07, 3.32, 3.82, 3.58, 2.4, 1.24, 1.24, 2.5, 3.14, 4.0, 3.45, 2.21, 1.13, 1.03, 4.0, 5.86, 8.56, 11.62, 13.67, 10.28, 2.68, 2.2, 3.72, 3.64, 3.9, 5.0, 5.0, 6.01, 6.68, 7.69, 8.3, 8.63, 9.08, 8.14, 7.03, 5.72, 5.09, 5.43, 6.7, 7.67, 8.24, 9.2, 10.68, 10.15, 9.6, 9.11, 8.19, 8.19, 8.91, 9.89, 10.93, 9.72, 7.45, 6.36, 5.44, 4.3, 3.51, 3.07, 3.04, 2.4, 2.6, 3.13, 3.97, 3.82, 4.3, 4.52, 4.93, 5.44, 4.11, 2.5, 7.61, 7.61, 7.32, 7.32, 7.32, 6.98, 6.98, 6.98, 6.64, 6.35, 5.72, 5.38, 2.84, 2.21, 1.86, 1.6, 1.26, 0.57, 0.0, -0.85, -0.53, 0.0, 1.4, 2.53, 3.2, 4.41, 4.02, 3.13, 2.6, 2.6, 2.68, 1.58, 0.0, 0.0, 1.2, 2.15, 3.49, 4.12, 5.09, 4.12, 3.32, 4.12, 6.1, 7.71, 10.05, 10.98, 7.64, 2.68, 2.98, 4.01, 4.01, 3.64, 3.9, 4.65, 4.71, 5.3, 6.01, 7.69, 8.3, 8.63, 8.95, 7.6, 6.08, 5.37, 5.37, 6.39, 7.69, 8.67, 9.27, 9.52, 10.8, 11.34, 11.45, 10.02, 7.45, 6.98, 8.36, 11.23, 11.45, 10.26, 7.92, 7.45, 7.45, 6.21, 3.97, 3.07, 2.91, 2.91, 3.07, 3.58, 3.97, 4.3, 4.52, 4.27, 4.09, 4.09, 3.6, 1.9, 7.32, 7.32, 7.32, 6.98, 6.98, 6.7, 6.98, 6.69, 6.35, 6.0, 5.72, 5.36, 3.72, 2.53, 1.9, 1.9, 1.9, 1.24, 0.0, -0.53, -1.2, 0.0, 0.0, 0.61, 1.84, 2.5, 3.07, 3.58, 3.51, 3.13, 2.23, 0.0, -1.41, 0.0, 0.7, 2.68, 3.63, 5.37, 5.94, 6.14, 6.71, 6.77, 6.77, 6.71, 6.64, 5.05, 3.51, 4.43, 5.09, 5.09, 4.07, 3.64, 3.9, 4.65, 4.56, 5.59, 6.68, 7.69, 8.67, 9.2, 8.55, 6.7, 5.37, 5.0, 6.32, 7.02, 7.68, 8.23, 9.21, 10.41, 12.08, 13.64, 13.99, 12.18, 8.84, 5.81, 6.26, 9.83, 12.42, 9.81, 5.78, 5.77, 6.98, 5.77, 3.53, 3.32, 3.53, 3.97, 4.02, 3.98, 4.3, 4.3, 4.4, 4.09, 3.49, 3.45, 3.32, 2.15, 7.32, 7.32, 6.98, 6.98, 6.7, 6.7, 6.98, 6.35, 6.35, 5.72, 5.72, 5.09, 3.72, 2.15, 2.15, 2.15, 1.88, 1.4, 0.61, -0.59, -1.6, -1.49, -0.6, 0.0, 0.0, 0.65, 1.49, 2.8, 3.04, 3.58, 2.21, 0.0, -1.49, -0.74, 1.04, 3.11, 3.45, 5.21, 7.12, 6.77, 6.2, 5.0, 3.49, 3.97, 4.92, 5.64, 5.69, 6.07, 5.46, 5.09, 4.01, 3.9, 3.9, 4.56, 5.3, 6.32, 7.06, 7.69, 9.2, 9.49, 8.0, 5.09, 4.65, 4.83, 6.24, 7.31, 7.68, 7.33, 8.68, 9.92, 12.39, 14.68, 15.27, 14.49, 12.14, 8.05, 4.87, 6.66, 8.91, 9.36, 4.43, 3.97, 5.32, 5.32, 3.97, 3.58, 4.02, 4.47, 4.43, 4.3, 4.3, 4.3, 4.73, 3.49, 1.88, 2.6, 3.09, 2.91, 6.98, 6.98, 6.98, 6.98, 6.7, 6.7, 6.34, 6.35, 5.98, 5.72, 5.08, 4.69, 3.22, 2.68, 2.15, 1.33, 1.49, 1.66, 1.6, 0.0, -2.51, -2.6, -1.8, -1.58, 0.0, 0.0, 0.7, 1.49, 2.41, 3.22, 2.84, 0.66, 0.0, 0.0, 0.71, 2.1, 3.07, 5.4, 6.87, 3.8, 1.16, 1.58, 3.07, 4.92, 7.15, 7.11, 6.4, 6.07, 5.72, 4.43, 3.72, 3.64, 4.65, 4.65, 5.37, 6.7, 7.07, 7.6, 8.55, 9.49, 6.64, 3.43, 3.0, 4.56, 5.21, 6.95, 7.68, 7.06, 6.7, 8.88, 11.62, 13.29, 13.99, 14.92, 15.18, 13.67, 8.94, 4.02, 4.41, 7.76, 4.3, 4.02, 4.47, 4.92, 4.47, 3.97, 4.24, 4.3, 4.73, 4.0, 3.6, 4.3, 4.52, 2.79, 1.26, 2.24, 4.02, 3.53, 6.98, 6.98, 6.98, 6.98, 6.7, 6.34, 6.34, 6.08, 5.7, 5.32, 4.66, 4.0, 2.88, 2.15, 3.22, 1.16, 2.4, 3.33, 2.9, 2.12, 0.0, -1.35, -2.9, -2.4, 0.0, 0.0, 0.0, 0.0, 1.07, 1.47, 0.87, 0.0, 0.0, 1.41, 2.17, 2.15, 2.34, 4.32, 4.44, 1.16, 0.0, 0.63, 2.8, 4.98, 6.17, 4.24, 5.43, 6.39, 6.06, 5.59, 5.24, 4.01, 4.65, 5.06, 5.43, 5.69, 6.4, 6.79, 7.71, 7.47, 4.46, 2.0, 2.2, 2.88, 3.9, 6.01, 7.68, 8.0, 6.94, 8.63, 10.49, 11.4, 11.86, 14.11, 15.01, 15.01, 12.3, 6.79, 4.0, 7.92, 7.45, 5.81, 5.64, 5.64, 4.73, 4.52, 4.0, 3.72, 4.0, 3.72, 3.72, 4.27, 4.09, 2.5, 1.34, 2.68, 4.47, 3.97, 6.98, 6.98, 6.98, 6.98, 6.7, 6.34, 6.34, 6.34, 5.7, 5.29, 4.63, 3.49, 2.35, 2.53, 4.43, 2.98, 2.98, 3.9, 2.88, 3.07, 2.91, 3.13, 2.15, 0.63, 0.0, 0.0, 0.0, 0.0, -0.94, -0.95, -0.96, -0.96, 0.0, 2.17, 3.53, 3.69, 2.89, 2.97, 3.2, 1.49, 0.45, 0.0, 1.26, 1.86, 1.34, 1.49, 2.79, 5.43, 6.06, 6.18, 3.79, 4.43, 5.06, 5.43, 5.82, 6.0, 6.0, 6.28, 6.79, 5.43, 3.16, 0.7, 0.7, 1.41, 2.98, 5.09, 8.24, 8.4, 6.66, 7.15, 8.94, 10.28, 11.18, 12.07, 12.07, 11.6, 10.96, 9.33, 8.63, 10.25, 11.18, 8.91, 6.85, 5.31, 4.93, 4.66, 3.72, 3.49, 3.49, 3.16, 3.78, 3.48, 2.51, 1.26, 1.79, 3.53, 4.88, 3.82, 6.98, 6.98, 6.98, 6.98, 6.61, 6.34, 6.34, 6.34, 5.69, 5.26, 4.57, 4.05, 3.25, 2.49, 3.15, 2.67, 3.27, 3.09, 2.0, 1.88, 2.54, 5.36, 6.71, 4.41, 2.48, 0.88, 0.0, -0.73, -3.17, -2.06, 0.0, 0.0, 1.06, 2.2, 2.28, 2.35, 2.98, 1.01, 0.0, 0.0, -0.89, -0.89, -0.89, -0.89, -0.45, -0.0, 0.8, 2.8, 4.46, 6.08, 6.01, 4.65, 5.37, 5.43, 5.72, 6.07, 6.07, 6.94, 6.94, 5.43, 3.07, 1.66, 0.79, 1.41, 3.07, 5.82, 8.4, 8.63, 5.81, 5.77, 7.11, 8.84, 10.18, 10.19, 9.36, 8.05, 7.6, 8.46, 9.81, 10.7, 11.6, 9.39, 6.11, 5.05, 5.09, 4.66, 4.11, 3.49, 2.86, 2.86, 3.15, 2.48, 0.61, 0.0, 2.4, 4.3, 4.77, 3.32, 6.98, 6.98, 6.98, 6.98, 6.61, 6.61, 6.33, 6.33, 5.92, 5.67, 5.64, 5.83, 5.17, 3.44, 2.53, 2.37, 3.34, 3.14, 2.24, 1.09, 2.1, 3.25, 6.11, 5.69, 4.22, 3.0, 1.66, 0.0, -1.96, -1.07, 0.0, 1.0, 0.0, 0.0, 0.0, 1.0, 1.83, 1.16, 0.0, -0.45, -1.34, -1.7, -1.2, -1.2, -0.63, 0.0, 0.0, 0.89, 2.4, 3.48, 4.65, 5.0, 5.37, 5.43, 5.72, 6.08, 7.03, 7.47, 6.94, 5.6, 4.11, 3.0, 3.17, 3.11, 4.01, 4.81, 7.2, 7.33, 4.43, 3.58, 5.59, 7.92, 8.84, 8.02, 7.6, 7.12, 6.66, 6.22, 7.6, 8.94, 10.7, 11.09, 7.15, 4.73, 4.93, 5.02, 4.77, 4.0, 3.16, 2.48, 1.76, 0.59, -0.53, 0.0, 2.21, 4.27, 4.27, 1.79, 6.98, 6.98, 6.98, 6.98, 6.71, 6.33, 6.33, 6.33, 6.31, 6.31, 6.29, 6.5, 6.92, 5.83, 4.01, 3.87, 4.13, 3.55, 2.38, 2.4, 1.58, 2.47, 3.41, 4.04, 4.12, 2.09, 0.79, 0.65, 0.76, 0.0, 0.0, 0.0, 0.45, 0.0, 0.0, 0.0, 0.0, 0.0, 0.0, 0.0, 0.0, -0.45, 0.45, 0.0, 0.0, 0.0, 0.0, 0.89, 1.58, 1.4, 2.07, 3.79, 4.46, 5.09, 6.0, 6.94, 7.89, 8.19, 7.45, 4.93, 3.64, 2.99, 3.6, 3.09, 2.99, 4.46, 6.01, 6.7, 5.43, 4.87, 5.81, 7.15, 7.15, 6.71, 7.15, 8.05, 7.12, 5.77, 6.21, 7.12, 8.49, 9.29, 9.62, 7.6, 5.78, 5.32, 5.36, 4.43, 3.2, 2.23, 0.57, 0.0, -0.59, 0.0, 1.8, 4.12, 3.07, -0.57, 6.98, 6.98, 6.98, 6.71, 6.71, 6.71, 6.58, 6.31, 6.31, 6.29, 6.53, 6.92, 6.92, 7.59, 6.97, 5.7, 4.69, 4.57, 4.62, 4.66, 4.58, 3.37, 2.13, 1.02, 1.03, 0.0, -0.63, -0.45, 0.0, 0.0, 0.45, -0.0, -0.6, -0.95, 0.0, 0.0, -1.0, -0.63, 0.45, 0.0, -0.0, -0.0, -0.0, 0.89, 0.0, 0.0, 0.45, -0.0, 0.85, 1.49, 1.9, 2.91, 3.53, 4.02, 4.87, 6.26, 7.56, 8.46, 7.15, 3.32, 1.52, 2.31, 3.15, 1.49, 0.77, 2.35, 5.38, 6.64, 7.28, 7.47, 7.33, 7.92, 7.48, 7.11, 7.6, 8.94, 8.46, 6.66, 6.11, 5.77, 4.02, 4.87, 6.98, 8.8, 7.04, 7.12, 7.12, 4.92, 3.58, 2.4, 0.61, -0.57, -0.57, 0.0, 2.0, 2.48, -0.45, -1.84, 6.98, 6.98, 6.71, 6.71, 6.71, 6.97, 6.97, 6.7, 6.96, 6.94, 6.94, 6.92, 7.57, 7.96, 8.24, 6.97, 5.98, 5.69, 6.35, 6.98, 7.9, 7.9, 7.31, 5.14, 3.99, 3.13, 2.17, 0.63, -0.0, -0.63, -0.89, -0.89, -1.7, -1.7, -0.63, -1.2, -1.34, -1.2, -1.34, -0.89, -0.0, -0.0, 0.45, 0.45, 0.0, -0.95, -1.2, -0.95, 0.63, 1.34, 1.7, 2.15, 3.14, 3.78, 5.24, 5.24, 4.57, 7.15, 6.26, 1.86, -0.0, 0.74, 1.49, -0.0, -0.0, -0.0, 2.72, 5.94, 7.32, 8.05, 8.3, 8.24, 7.89, 7.89, 8.49, 9.26, 8.8, 6.66, 4.92, 4.02, 3.13, 3.58, 5.36, 6.71, 7.28, 8.19, 9.26, 7.12, 3.98, 3.53, 2.17, 0.0, -0.57, 0.0, 1.23, -0.57, -2.79, -2.23, 6.98, 6.98, 6.71, 6.71, 6.97, 6.97, 6.97, 6.96, 6.96, 6.94, 6.94, 7.19, 7.32, 7.57, 8.24, 7.93, 7.23, 6.92, 6.64, 8.15, 9.3, 10.4, 11.13, 11.05, 10.67, 9.37, 7.13, 4.44, 1.7, 0.0, -1.79, -1.79, -1.34, -1.34, -0.89, -1.2, -1.2, -0.63, -0.89, -0.89, -0.63, 0.0, 0.0, 0.0, 0.0, -1.79, -1.2, -0.45, 0.0, 0.0, 0.71, 1.8, 3.72, 2.99, 2.68, 1.8, 0.7, 3.22, 5.94, 0.6, -1.88, -1.08, -0.0, -0.0, -0.7, -0.0, 0.59, 2.23, 5.95, 5.72, 7.64, 8.68, 9.08, 8.91, 8.82, 8.67, 5.77, 3.58, 3.51, 4.41, 4.41, 4.92, 6.26, 6.71, 6.22, 7.56, 9.72, 9.26, 5.67, 4.3, 3.97, 2.6, 0.61, 0.0, -1.16, -2.91, -3.14, -2.23, 6.98, 6.98, 6.71, 6.71, 6.97, 6.97, 7.24, 6.96, 6.96, 7.22, 6.94, 7.59, 7.59, 7.59, 7.96, 8.24, 7.93, 7.86, 7.81, 8.15, 9.66, 11.22, 12.11, 13.02, 12.78, 11.74, 10.04, 7.87, 5.09, 2.4, 0.89, 0.45, -0.63, -0.89, -1.26, -1.58, -1.26, -0.63, -1.34, -0.63, 0.0, 0.0, 0.0, 0.0, 0.0, -0.0, -1.2, -1.34, -0.63, 0.0, 0.0, 2.15, 2.21, 1.2, 0.89, 0.63, 0.7, 2.8, 3.48, 0.45, -2.23, -1.9, -0.71, -0.8, -0.8, -0.57, -0.0, 0.63, 0.71, 2.0, 5.06, 8.63, 10.49, 10.28, 8.36, 4.47, 2.4, 2.5, 3.83, 4.93, 6.07, 6.66, 6.71, 6.71, 5.2, 6.07, 8.46, 9.39, 7.94, 6.55, 5.2, 4.02, 1.58, 0.0, -2.24, -2.51, -2.53, -2.53, 6.98, 6.98, 6.71, 6.71, 6.97, 6.97, 7.24, 7.33, 7.33, 7.6, 7.33, 7.33, 7.33, 7.59, 7.59, 8.24, 8.56, 8.82, 8.78, 8.73, 9.5, 10.83, 11.88, 13.02, 13.51, 13.41, 12.18, 10.94, 9.11, 7.26, 5.31, 2.91, 1.34, 0.89, -0.0, -0.0, -0.0, -0.63, -0.89, 1.34, 0.0, 0.71, 1.9, 1.79, 0.89, -1.0, -2.53, -2.4, -1.34, 0.45, 0.0, 0.63, 1.34, 1.26, 0.8, 1.34, 1.4, 2.76, 1.24, -0.0, -0.6, -0.0, -0.0, 0.45, 0.0, 0.45, -0.8, -0.89, -0.0, 2.15, 4.4, 8.49, 10.7, 10.16, 3.97, 1.2, 1.41, 3.72, 4.46, 4.84, 6.4, 6.94, 7.28, 7.56, 6.26, 3.45, 6.0, 6.98, 6.71, 6.26, 6.22, 2.63, 0.0, -1.26, -0.61, -1.13, -2.23, -2.23, 6.98, 6.98, 6.71, 6.97, 6.97, 6.97, 7.61, 7.33, 7.33, 7.6, 7.6, 7.6, 7.6, 7.6, 7.6, 8.24, 8.87, 9.46, 9.08, 9.3, 9.76, 10.68, 11.82, 12.6, 13.1, 14.11, 14.11, 13.21, 12.3, 10.66, 9.01, 7.31, 4.4, 2.24, -0.0, -0.0, -0.0, 0.45, 0.45, 0.0, 0.0, 0.54, 1.2, 0.6, 1.34, -1.58, -2.53, -1.2, -0.0, -0.0, -0.0, 1.0, 1.4, 2.21, 2.4, 3.13, 4.77, 3.58, 2.53, 1.13, 1.6, 2.21, 2.4, 2.24, 2.24, 1.34, 0.45, -0.89, 0.0, 2.68, 6.61, 7.85, 9.2, 6.07, 1.34, -0.0, 1.41, 3.9, 4.43, 5.09, 6.0, 6.94, 7.76, 7.94, 8.46, 4.92, 2.51, 3.39, 3.97, 4.87, 5.32, 3.54, 1.34, -0.0, -0.0, -0.59, -1.84, -1.84, 6.98, 6.98, 6.71, 6.97, 6.97, 6.97, 7.61, 7.61, 7.33, 7.33, 7.6, 7.6, 7.6, 7.6, 7.6, 7.96, 8.58, 9.17, 9.08, 9.76, 10.55, 11.08, 11.41, 11.99, 13.3, 14.65, 15.48, 14.93, 14.31, 13.26, 11.41, 9.88, 7.76, 5.47, 2.97, 1.34, 0.45, 0.0, 0.57, 0.71, 0.65, 0.0, 0.0, 0.0, 0.89, -1.9, -1.4, -0.0, -0.0, 1.4, 2.53, 2.84, 2.84, 2.23, 2.23, 3.35, 4.34, 4.29, 4.11, 3.79, 4.09, 3.72, 3.82, 3.39, 2.97, 1.79, 1.79, 1.6, 0.76, 3.22, 6.52, 5.72, 5.09, 3.07, -0.0, -0.0, 1.33, 3.79, 5.43, 5.34, 5.16, 6.22, 7.15, 8.05, 7.15, 3.58, 1.86, 1.9, 2.86, 4.0, 4.0, 3.97, 2.17, -0.0, -0.0, -0.59, -1.61, -1.61, 6.98, 6.98, 6.71, 6.97, 6.97, 6.97, 7.61, 7.61, 7.61, 7.33, 7.33, 7.6, 7.6, 7.6, 6.94, 7.24, 7.61, 7.95, 8.45, 10.02, 11.6, 12.42, 10.96, 10.23, 10.68, 13.77, 13.02, 13.64, 12.94, 11.75, 11.22, 10.55, 9.1, 7.76, 6.1, 4.44, 3.58, 3.39, 2.23, 1.49, 1.2, 0.65, 0.0, 0.0, -0.0, -0.0, -0.0, -0.0, 1.4, 1.4, 2.84, 2.48, 2.48, 1.08, 2.4, 3.49, 4.29, 4.65, 4.65, 4.8, 4.34, 3.82, 3.82, 2.24, 2.12, 1.26, 0.95, 1.79, 3.14, 5.59, 6.36, 8.05, 10.7, 10.18, 5.31, 2.24, 2.24, 3.58, 5.81, 5.81, 5.77, 6.98, 7.28, 7.33, 7.28, 4.73, 2.91, 1.86, 2.07, 2.48, 2.51, 2.91, 1.26, -0.0, -0.61, -1.33, -1.61, -1.61, 6.98, 6.98, 6.98, 6.97, 6.97, 7.33, 7.33, 7.61, 7.61, 7.61, 7.33, 7.6, 7.6, 7.6, 7.59, 7.33, 6.97, 6.33, 6.42, 7.97, 11.53, 12.45, 11.58, 10.18, 10.43, 11.82, 11.82, 11.87, 11.52, 10.23, 9.3, 8.84, 8.82, 8.0, 7.51, 6.6, 5.78, 5.78, 5.78, 4.88, 3.39, 2.49, 2.63, 3.53, 2.79, 2.84, 1.6, 1.4, 1.4, 2.53, 2.53, 2.23, 1.08, 1.19, 0.65, 2.07, 5.59, 3.84, 3.2, 4.34, 3.58, 3.13, 2.68, 2.68, -0.0, -1.0, -1.24, -0.0, 2.6, 5.16, 7.47, 11.62, 16.33, 18.5, 15.2, 8.91, 5.3, 5.59, 6.07, 5.6, 6.0, 7.06, 7.89, 7.06, 6.28, 4.3, 2.68, 2.4, 1.61, 1.11, 0.59, 0.8, -0.0, -0.99, -1.9, -1.88, -1.88, -1.88, 6.98, 6.98, 6.98, 7.26, 7.33, 7.33, 7.33, 7.61, 7.61, 7.61, 7.61, 7.33, 7.6, 7.6, 7.6, 7.33, 6.97, 6.7, 6.94, 8.56, 10.98, 11.38, 11.08, 11.38, 12.01, 12.3, 11.03, 10.36, 9.08, 8.08, 6.87, 7.07, 6.56, 6.51, 6.04, 6.23, 5.78, 5.79, 6.23, 6.23, 5.81, 5.36, 5.81, 6.16, 5.09, 4.4, 2.53, 3.2, 2.8, 2.8, 2.21, 1.13, -0.0, -0.0, 1.3, 1.6, 4.01, 4.07, 4.4, 2.68, 1.79, 1.79, 1.79, 0.45, -0.71, -2.21, -1.2, -0.0, 0.66, 3.0, 5.49, 9.92, 14.26, 16.37, 15.57, 11.88, 7.03, 7.01, 6.05, 5.0, 5.46, 6.54, 7.71, 7.04, 6.66, 3.58, 2.5, 2.53, 3.82, 1.2, -0.65, -1.34, -0.6, -1.24, -2.5, -2.68, -2.79, -2.79, 6.98, 6.98, 6.98, 6.98, 7.61, 7.33, 7.33, 7.33, 7.61, 7.61, 7.61, 7.61, 7.6, 7.6, 7.6, 7.6, 7.33, 7.96, 9.22, 10.47, 10.76, 9.5, 9.5, 11.03, 12.56, 13.38, 12.27, 9.92, 7.76, 6.28, 5.75, 4.84, 4.8, 4.34, 4.47, 4.47, 4.47, 4.89, 5.7, 6.16, 6.23, 6.26, 6.26, 6.26, 5.7, 4.19, 4.24, 3.2, 2.8, 2.8, 1.9, -0.0, -0.0, -0.0, -0.0, 1.14, 1.6, 3.09, 4.43, 1.34, 0.45, 0.45, 0.0, -0.0, -0.85, -1.4, -1.6, -0.76, -0.61, -0.0, 0.98, 5.44, 9.84, 10.49, 5.3, 5.8, 6.92, 7.2, 6.27, 4.87, 4.83, 5.36, 6.0, 6.22, 6.71, 4.92, 3.53, 3.07, 4.02, 3.09, 0.0, -0.89, -0.6, -1.2, -2.53, -2.79, -3.07, -3.07, 7.32, 7.32, 7.32, 7.32, 7.61, 7.61, 7.61, 7.33, 7.61, 7.61, 7.61, 7.61, 7.89, 7.61, 7.33, 7.6, 8.24, 8.87, 9.84, 11.06, 10.94, 9.59, 9.02, 10.23, 12.0, 12.82, 12.79, 11.62, 10.34, 8.96, 7.69, 5.88, 5.24, 4.89, 4.92, 4.47, 4.47, 4.47, 4.8, 5.7, 6.16, 6.23, 6.26, 6.26, 5.34, 4.6, 4.77, 3.58, 2.68, 2.4, 1.2, -0.0, -0.0, -0.0, -0.0, -0.0, -0.0, 0.81, 3.22, 2.86, 1.34, 0.0, -0.45, -0.71, -1.33, -0.73, -0.7, -0.54, -0.54, -0.8, -0.89, 0.89, 4.3, 2.12, 0.0, 1.4, 4.24, 5.73, 6.16, 5.63, 4.05, 4.46, 4.43, 4.46, 5.05, 4.73, 3.97, 3.82, 4.09, 4.73, 3.53, 2.17, 0.6, -0.54, -1.84, -2.23, -2.21, -2.21, 7.32, 7.32, 7.32, 7.32, 7.32, 7.61, 7.61, 7.61, 7.33, 7.61, 7.95, 7.95, 7.95, 7.61, 7.89, 8.24, 8.87, 9.21, 9.82, 10.4, 10.65, 10.51, 10.68, 10.58, 11.5, 12.42, 12.79, 12.83, 12.11, 11.56, 10.34, 8.64, 7.51, 6.68, 6.26, 6.26, 5.81, 5.36, 5.33, 5.34, 5.79, 6.23, 6.71, 6.26, 5.78, 4.88, 5.36, 4.47, 3.58, 3.2, 2.53, 1.27, 1.27, -0.0, -0.0, -0.0, -0.54, -0.54, 1.49, 3.6, 3.07, 0.63, -1.2, -1.4, -1.66, -0.81, -0.0, -0.0, -0.0, -0.0, 0.0, 3.58, 5.77, 4.43, 2.12, 0.0, 1.07, 3.18, 5.14, 4.95, 4.77, 4.12, 4.37, 4.14, 4.56, 3.72, 2.73, 2.88, 2.51, 2.68, 5.16, 4.66, 3.07, 0.57, -0.54, -1.61, -1.9, -1.9, 7.32, 7.32, 7.32, 7.32, 7.32, 7.32, 7.61, 7.61, 7.61, 8.24, 7.95, 7.95, 7.95, 7.95, 8.24, 8.24, 8.87, 9.5, 9.8, 10.09, 10.65, 11.16, 11.62, 11.5, 11.75, 11.75, 12.11, 12.51, 12.62, 12.53, 11.81, 10.81, 9.57, 8.87, 8.47, 8.05, 7.6, 7.15, 6.71, 6.26, 6.71, 6.71, 7.15, 6.71, 6.26, 5.81, 5.81, 5.36, 4.89, 4.77, 4.19, 4.4, 2.84, 1.6, -0.0, -0.0, -0.0, -0.6, 0.0, 2.68, 3.58, 2.24, -0.45, -1.2, -1.41, -0.73, -0.0, -0.0, -0.0, 0.0, 1.84, 4.43, 8.67, 9.36, 9.58, 6.98, 3.13, 1.88, 3.14, 3.82, 4.86, 5.02, 5.54, 4.87, 2.99, 1.52, 1.45, 1.35, 0.89, 1.27, 2.04, 4.94, 4.41, 2.86, 0.6, -0.0, -0.57, -0.57, 7.32, 7.32, 7.32, 7.32, 7.32, 7.32, 7.61, 7.61, 7.93, 8.24, 8.24, 7.95, 7.95, 7.95, 8.24, 8.58, 8.58, 9.19, 9.48, 9.77, 10.36, 10.88, 11.72, 11.62, 12.14, 11.99, 11.6, 11.7, 12.33, 11.92, 11.62, 11.39, 10.81, 10.04, 9.68, 8.87, 8.47, 8.47, 8.03, 7.58, 7.6, 7.6, 7.6, 7.6, 7.15, 6.71, 6.71, 6.26, 6.26, 5.81, 5.34, 4.88, 4.34, 2.53, 1.6, -0.0, -0.0, -0.0, 0.89, 0.8, 3.07, 3.58, 2.24, -0.0, -0.65, -0.7, -0.0, -0.0, -0.57, 0.0, 1.2, 4.11, 7.06, 10.73, 11.08, 10.8, 10.65, 6.67, 2.79, 2.83, 4.55, 5.81, 6.8, 5.62, 2.54, 1.35, 1.52, 1.2, 1.16, 1.27, 1.27, 3.97, 6.35, 5.36, 3.07, 1.86, 0.99, 0.99, 7.32, 7.32, 7.32, 7.32, 7.32, 7.32, 7.32, 7.61, 7.93, 7.93, 8.24, 8.24, 7.95, 7.95, 8.56, 8.87, 8.87, 9.17, 9.48, 9.77, 10.36, 10.65, 11.16, 11.62, 11.88, 11.88, 12.11, 11.92, 11.82, 11.62, 11.21, 10.49, 10.18, 10.34, 9.86, 9.57, 9.57, 9.23, 9.23, 8.87, 8.86, 8.47, 8.47, 8.05, 7.6, 7.6, 7.6, 7.15, 6.71, 6.26, 5.81, 4.92, 4.47, 3.53, 1.6, 1.2, 1.58, -0.0, 0.45, 0.0, 1.58, 3.53, 3.58, 1.49, -0.0, -0.0, -0.0, -0.0, 0.0, 0.0, 1.2, 2.79, 6.08, 7.98, 8.46, 8.95, 9.6, 7.94, 3.07, 1.45, 2.95, 6.09, 6.95, 5.32, 2.66, 2.49, 2.0, 2.17, 2.51, 1.84, 1.16, 2.53, 6.06, 6.7, 5.36, 3.72, 3.32, 3.32, 7.32, 7.32, 7.32, 7.32, 7.32, 7.32, 7.32, 7.61, 7.93, 7.93, 8.24, 8.24, 8.24, 7.95, 8.56, 8.56, 8.87, 9.17, 9.17, 10.06, 10.3, 10.65, 11.16, 11.44, 11.88, 12.28, 12.11, 12.11, 11.92, 11.62, 11.39, 11.08, 10.6, 10.34, 9.86, 10.01, 9.57, 9.57, 9.23, 9.23, 8.87, 8.87, 8.47, 8.49, 8.03, 8.03, 8.49, 7.6, 7.15, 6.71, 5.81, 5.36, 4.47, 4.02, 3.13, 1.34, 1.79, 0.89, -0.63, -0.89, 0.0, 2.5, 3.82, 2.6, 0.65, 1.19, 0.57, 0.45, 0.0, 0.0, 1.24, 2.86, 5.09, 4.74, 3.83, 5.16, 5.64, 4.43, 2.91, 0.66, 1.58, 5.28, 7.73, 6.29, 4.8, 2.82, 1.2, 1.86, 3.07, 3.07, 1.86, 2.4, 4.66, 6.9, 6.59, 5.36, 4.52, 4.52, 7.6, 7.6, 7.6, 7.6, 7.32, 7.32, 7.32, 7.61, 7.93, 7.93, 7.93, 8.24, 8.24, 8.53, 8.85, 8.85, 8.85, 9.13, 9.46, 10.06, 10.06, 10.3, 10.59, 11.07, 11.24, 11.5, 11.75, 12.11, 11.92, 11.62, 11.39, 11.08, 10.66, 10.77, 10.34, 10.04, 10.01, 9.68, 9.68, 9.68, 9.32, 8.87, 8.47, 7.6, 7.11, 7.51, 8.47, 7.97, 7.4, 6.68, 5.79, 5.36, 4.92, 4.47, 3.58, 3.07, 1.34, 0.45, 0.45, -0.89, 0.0, 1.9, 2.8, 1.7, 1.2, 0.65, 0.65, 0.0, -0.71, -0.57, 1.24, 4.24, 7.06, 6.06, 6.31, 6.31, 4.36, 2.23, 1.0, 0.0, 0.57, 4.17, 7.06, 7.55, 5.21, 2.66, 2.0, 2.68, 3.58, 3.58, 2.24, 2.12, 3.39, 6.13, 6.8, 6.9, 6.25, 6.25, 7.6, 7.6, 7.6, 7.6, 7.6, 7.6, 7.6, 7.9, 8.22, 8.22, 7.93, 7.93, 8.24, 8.53, 8.53, 8.85, 8.85, 9.13, 9.46, 9.72, 9.72, 10.59, 10.23, 10.51, 10.7, 10.96, 11.36, 11.6, 11.62, 11.62, 11.39, 11.39, 11.08, 10.81, 10.34, 10.47, 10.04, 10.14, 10.14, 9.77, 9.77, 9.32, 8.92, 8.03, 7.15, 7.6, 8.49, 7.06, 5.09, 4.6, 4.77, 4.77, 4.89, 4.44, 3.98, 3.39, 2.4, 1.26, 0.0, 0.0, 0.0, 1.9, 1.7, 0.63, 0.6, -0.0, -0.0, -0.0, -1.26, -0.71, 0.61, 3.84, 8.36, 10.45, 9.92, 9.4, 7.59, 2.73, 1.16, 0.0, 0.61, 2.8, 5.8, 7.53, 7.59, 4.42, 3.35, 3.6, 3.82, 3.39, 2.17, 1.79, 3.13, 4.73, 6.36, 7.06, 7.14, 7.14, 7.6, 7.6, 7.6, 7.6, 7.6, 7.6, 7.6, 7.9, 7.9, 8.22, 8.22, 8.22, 7.93, 8.53, 8.53, 8.53, 8.53, 9.13, 9.42, 10.01, 10.01, 10.01, 10.51, 10.51, 10.51, 10.96, 10.83, 11.08, 11.21, 11.81, 11.81, 11.39, 11.08, 10.81, 10.34, 10.47, 10.47, 10.14, 10.14, 10.22, 9.77, 9.77, 9.32, 8.42, 7.51, 7.89, 8.36, 6.6, 3.87, 2.91, 3.39, 3.39, 3.6, 4.3, 3.87, 3.07, 2.5, 1.9, 1.26, 0.6, 0.57, 1.24, 0.8, 0.89, 0.89, 0.0, -0.45, 0.0, 0.6, 0.85, 0.66, 1.16, 3.74, 10.28, 13.21, 13.43, 12.16, 8.68, 3.84, 3.07, 2.21, 1.27, 3.52, 5.89, 6.94, 6.98, 6.92, 4.66, 4.52, 3.82, 2.91, 2.6, 3.13, 4.02, 5.78, 6.58, 7.04, 7.04, 7.6, 7.6, 7.6, 7.6, 7.6, 7.6, 7.6, 7.9, 7.9, 7.9, 8.22, 8.22, 8.22, 8.82, 8.82, 8.82, 8.82, 9.08, 9.42, 9.42, 9.94, 9.94, 9.94, 10.15, 10.41, 10.41, 10.68, 10.55, 10.15, 10.42, 11.33, 10.91, 10.66, 10.81, 10.34, 10.47, 10.47, 10.14, 10.14, 10.22, 9.77, 9.77, 9.32, 8.87, 8.77, 9.11, 9.11, 7.97, 5.78, 4.44, 3.39, 3.39, 3.07, 3.07, 2.21, 2.5, 1.9, 1.58, 1.24, 1.24, 0.6, 0.6, 0.89, 0.89, 0.89, 0.45, 0.0, 0.0, 1.49, 1.6, 0.0, -0.6, 0.0, 5.73, 13.41, 14.7, 12.13, 9.3, 7.07, 6.8, 7.33, 4.73, 3.45, 5.35, 6.32, 6.64, 7.17, 7.9, 5.86, 5.64, 3.82, 2.91, 3.07, 3.58, 5.78, 6.67, 7.12, 7.12, 7.3, 7.3, 7.6, 7.6, 7.6, 7.6, 7.6, 7.9, 7.9, 7.9, 7.9, 8.22, 8.22, 8.5, 8.5, 8.82, 8.82, 8.82, 9.37, 9.37, 9.94, 9.94, 9.94, 10.23, 10.41, 10.04, 10.3, 10.3, 10.16, 10.15, 9.51, 9.7, 10.34, 10.34, 10.47, 10.47, 10.04, 10.14, 10.14, 10.14, 10.22, 9.77, 9.77, 9.32, 9.23, 9.23, 9.68, 8.87, 7.97, 6.94, 5.57, 4.6, 4.11, 3.6, 2.79, 2.5, 1.9, 1.24, 1.58, 1.58, 1.24, 0.89, 2.24, 0.89, 0.89, 0.45, 0.45, 0.63, 1.58, 1.49, 0.63, -0.63, 0.0, 2.79, 11.45, 14.87, 8.55, 1.6, 1.9, 5.2, 8.91, 9.83, 8.94, 7.6, 9.11, 9.63, 9.71, 9.71, 8.4, 6.79, 5.16, 3.07, 2.6, 3.53, 4.88, 6.71, 6.71, 6.71, 7.3, 7.3, 7.3, 7.3, 7.6, 7.6, 7.6, 7.9, 7.9, 7.9, 7.9, 7.9, 8.22, 8.5, 8.5, 8.5, 8.78, 8.78, 9.37, 9.37, 9.59, 9.86, 9.86, 9.86, 9.86, 10.3, 10.3, 10.3, 10.83, 10.91, 10.0, 9.7, 9.86, 10.01, 10.04, 10.04, 10.14, 10.14, 10.14, 10.14, 10.14, 9.68, 9.68, 9.68, 9.24, 9.68, 9.68, 9.23, 8.64, 8.17, 7.26, 6.3, 5.81, 5.31, 4.4, 3.88, 3.2, 2.5, 1.58, 1.58, 1.26, 1.26, 1.79, 1.79, 0.45, 0.0, 0.0, 0.0, 0.0, 0.0, 0.45, 0.95, 1.7, 6.01, 10.91, 13.99, 9.81, 2.6, 2.8, 6.67, 9.83, 11.18, 11.62, 11.6, 11.54, 12.3, 12.94, 12.78, 10.6, 8.48, 4.43, 2.17, 1.79, 3.07, 4.3, 6.67, 7.12, 7.12, 7.3, 7.3, 7.3, 7.3, 7.3, 7.3, 7.3, 8.19, 8.19, 8.19, 8.19, 8.19, 8.19, 8.45, 8.45, 8.78, 8.78, 8.78, 9.02, 9.02, 9.66, 9.86, 9.86, 9.86, 10.13, 10.13, 10.3, 10.55, 10.55, 10.91, 10.62, 10.18, 10.18, 9.91, 10.04, 10.04, 10.04, 10.14, 10.14, 10.14, 10.14, 9.68, 9.68, 9.68, 9.68, 9.68, 9.57, 9.11, 9.11, 8.48, 8.0, 7.51, 7.01, 6.51, 5.6, 5.31, 4.4, 3.6, 3.07, 1.9, 1.24, 1.58, 1.34, 1.34, 1.34, 0.89, 0.0, 0.0, -0.6, -0.6, 0.0, 0.89, 3.9, 10.01, 12.39, 12.87, 12.43, 12.04, 12.04, 12.3, 12.07, 11.89, 11.75, 12.18, 12.22, 13.41, 14.31, 12.44, 10.32, 6.66, 3.82, 1.88, 1.86, 2.68, 3.97, 5.2, 7.01, 7.01, 6.98, 6.98, 7.3, 7.59, 7.59, 7.59, 7.59, 7.86, 7.86, 8.19, 8.19, 8.19, 8.19, 8.45, 8.45, 8.45, 8.78, 8.78, 9.02, 9.3, 9.3, 9.5, 9.5, 9.76, 9.76, 9.76, 9.76, 10.02, 10.02, 10.4, 10.62, 10.21, 10.42, 10.18, 10.34, 10.47, 10.04, 10.04, 10.14, 10.14, 9.68, 9.68, 9.32, 9.77, 9.68, 10.13, 10.01, 9.43, 8.96, 8.72, 8.22, 7.71, 7.2, 6.8, 6.28, 6.0, 5.08, 4.8, 3.72, 2.21, 2.21, 1.58, 1.26, 0.45, 0.45, 1.79, 0.45, 0.0, 0.0, -0.6, -0.6, 0.0, 2.68, 9.83, 12.42, 11.96, 11.6, 12.74, 14.11, 14.3, 13.34, 11.09, 9.86, 9.86, 10.18, 10.6, 10.8, 9.15, 5.32, 4.3, 3.43, 3.16, 2.86, 3.04, 3.58, 4.87, 6.11, 6.11, 6.97, 6.97, 7.59, 7.59, 7.59, 7.59, 7.59, 7.86, 7.86, 7.86, 8.19, 8.19, 8.73, 8.73, 8.73, 8.73, 8.73, 8.73, 9.3, 9.3, 9.3, 9.3, 9.76, 9.76, 9.76, 9.76, 10.02, 9.63, 9.63, 9.88, 10.0, 10.21, 10.21, 10.42, 10.18, 10.34, 10.34, 10.04, 10.04, 10.01, 9.68, 9.23, 8.79, 8.91, 8.87, 9.68, 9.91, 9.7, 9.21, 8.51, 8.0, 7.48, 6.95, 6.56, 6.67, 6.28, 5.6, 5.08, 3.35, 2.79, 2.53, 2.53, 1.58, 0.45, 0.89, 2.24, 0.89, 0.45, 0.0, 0.0, -0.8, -0.8, 0.95, 7.97, 12.07, 12.3, 10.75, 11.87, 13.99, 13.92, 12.22, 9.18, 7.33, 7.2, 7.33, 7.56, 7.48, 4.92, 4.43, 4.11, 4.09, 4.09, 4.0, 3.82, 3.58, 4.47, 5.77, 5.78, 6.97, 6.97, 6.97, 7.27, 7.27, 7.59, 7.59, 7.59, 7.86, 7.86, 7.86, 8.15, 8.38, 8.73, 8.73, 8.73, 8.73, 8.73, 8.73, 8.94, 9.3, 9.58, 9.58, 9.76, 9.76, 10.02, 9.63, 9.63, 9.63, 9.88, 9.88, 9.88, 10.11, 9.71, 9.92, 10.0, 10.18, 9.75, 9.86, 9.86, 9.43, 9.11, 8.17, 7.89, 8.42, 10.14, 10.6, 9.71, 9.2, 8.68, 7.76, 7.48, 6.95, 6.56, 6.41, 6.28, 5.75, 5.08, 3.43, 2.84, 2.84, 2.23, 2.21, 0.89, 0.89, 2.24, 1.58, 0.63, 0.0, 0.0, -0.6, -1.2, 0.45, 5.36, 12.49, 12.42, 9.08, 9.9, 12.97, 13.54, 11.2, 8.67, 7.56, 6.36, 4.73, 4.47, 4.92, 4.87, 4.73, 4.73, 4.52, 4.52, 4.52, 5.64, 4.92, 4.47, 4.92, 5.77, 6.97, 6.97, 6.97, 7.27, 7.27, 7.27, 7.27, 7.59, 7.86, 8.15, 8.15, 8.15, 8.15, 8.38, 8.73, 8.73, 8.73, 8.73, 8.73, 8.94, 9.21, 9.21, 9.21, 9.76, 9.76, 9.63, 9.63, 9.63, 9.63, 9.63, 9.88, 9.48, 9.48, 9.71, 9.71, 9.71, 9.92, 9.92, 9.7, 9.7, 9.21, 8.79, 8.22, 7.51, 8.63, 10.34, 11.12, 9.88, 8.82, 8.15, 7.76, 7.48, 6.95, 6.56, 6.41, 6.13, 5.75, 4.29, 4.0, 3.43, 3.16, 2.84, 2.21, 2.4, 1.58, 2.4, 1.2, 0.6, 0.0, 0.0, 0.0, -0.63, 0.0, 3.22, 9.77, 10.7, 9.81, 8.82, 10.8, 11.46, 10.53, 8.97, 7.76, 6.26, 4.43, 4.73, 6.11, 6.11, 5.64, 5.64, 4.77, 4.77, 5.2, 7.11, 6.26, 5.36, 5.32, 4.92, 6.97, 6.97, 6.97, 7.27, 7.27, 7.27, 7.55, 7.55, 8.15, 7.81, 8.15, 8.15, 8.15, 8.38, 8.38, 8.38, 8.73, 8.73, 9.01, 9.21, 9.21, 9.21, 9.21, 9.21, 9.38, 9.63, 9.63, 9.63, 9.63, 9.63, 9.88, 9.48, 9.35, 9.35, 9.35, 9.6, 9.71, 9.3, 9.51, 9.42, 9.01, 9.01, 8.51, 8.15, 8.43, 10.4, 10.11, 8.15, 7.07, 7.23, 7.23, 7.23, 6.95, 6.56, 6.41, 5.86, 5.49, 4.65, 4.07, 3.48, 3.48, 2.86, 2.48, 2.53, 2.8, 2.8, 1.6, 2.8, 0.6, 0.0, 0.0, 0.0, 0.0, 0.87, 2.8, 7.15, 9.28, 9.83, 9.11, 8.0, 5.6, 4.3, 4.92, 6.22, 6.58, 6.58, 6.67, 6.67, 6.58, 6.11, 5.64, 5.77, 6.22, 8.05, 8.05, 7.15, 6.66, 6.66, 6.97, 6.97, 6.97, 7.27, 7.27, 7.55, 7.55, 7.55, 7.81, 7.81, 7.81, 8.15, 8.15, 8.38, 8.38, 8.65, 8.65, 9.01, 9.01, 9.21, 9.21, 9.21, 9.21, 9.21, 9.21, 9.63, 9.63, 9.63, 9.63, 9.63, 9.63, 9.48, 9.35, 9.35, 9.35, 9.35, 8.96, 9.2, 9.2, 9.2, 9.2, 8.8, 8.68, 8.43, 9.63, 10.55, 9.51, 7.31, 6.28, 6.03, 6.41, 6.95, 6.95, 6.95, 6.41, 6.41, 5.29, 4.71, 4.37, 3.79, 3.79, 3.48, 2.84, 2.84, 2.8, 2.8, 3.13, 2.4, 0.89, 0.45, 0.45, 0.0, 0.0, 0.0, 0.98, 3.48, 6.79, 8.19, 6.79, 3.82, 2.68, 3.53, 6.85, 9.15, 9.29, 8.91, 7.12, 6.26, 6.26, 6.26, 6.26, 6.71, 6.71, 8.05, 8.46, 8.36, 8.36, 8.36, 6.97, 6.97, 6.97, 7.27, 7.55, 7.55, 7.55, 7.55, 7.55, 7.81, 7.81, 7.81, 8.15, 8.38, 8.65, 8.65, 8.65, 8.65, 9.01, 9.21, 9.21, 9.21, 9.21, 9.21, 9.21, 9.21, 9.21, 9.48, 9.48, 9.48, 9.48, 9.48, 9.1, 9.1, 9.35, 8.96, 8.96, 8.96, 8.96, 8.96, 8.96, 8.96, 8.96, 8.96, 9.35, 9.88, 9.42, 8.0, 7.01, 6.28, 6.13, 6.03, 6.41, 6.15, 6.15, 6.15, 5.65, 5.29, 4.71, 4.11, 3.49, 3.49, 3.15, 3.16, 2.8, 3.13, 3.13, 2.24, 0.63, -0.0, 0.45, 0.6, 0.0, 0.66, 1.45, 3.69, 5.37, 6.94, 7.12, 5.64, 7.06, 9.82, 12.79, 13.21, 12.35, 10.65, 8.46, 5.81, 5.36, 6.26, 5.81, 6.22, 6.67, 8.8, 8.82, 8.67, 8.67, 8.67, 6.97, 6.97, 6.97, 7.27, 7.55, 7.55, 7.55, 7.55, 7.55, 7.81, 7.81, 7.81, 7.81, 8.15, 8.65, 8.65, 8.65, 8.65, 9.01, 9.01, 9.21, 9.21, 9.21, 9.21, 9.21, 9.21, 9.21, 9.21, 9.21, 9.48, 9.48, 9.48, 9.1, 9.1, 9.1, 8.96, 8.96, 8.96, 8.96, 8.96, 8.96, 8.82, 8.82, 8.96, 8.96, 9.2, 9.01, 8.51, 7.81, 7.2, 6.28, 5.75, 5.49, 5.86, 5.93, 5.93, 5.59, 5.01, 4.43, 4.43, 4.11, 3.49, 3.49, 3.16, 3.35, 3.13, 3.13, 1.2, 0.6, -0.0, 0.45, 0.57, 0.76, 1.47, 3.11, 3.07, 3.45, 7.11, 9.39, 10.15, 11.49, 14.31, 16.65, 15.76, 13.56, 10.98, 9.28, 7.15, 6.22, 5.77, 8.43, 6.11, 6.98, 8.19, 8.19, 8.19, 8.19, 8.19, 6.97, 6.97, 6.97, 6.97, 7.55, 7.55, 7.55, 7.55, 7.55, 7.81, 7.81, 7.81, 7.81, 8.15, 8.38, 8.38, 8.65, 8.65, 9.01, 9.01, 9.21, 9.21, 9.21, 9.21, 9.21, 9.21, 9.21, 9.21, 9.21, 9.21, 9.48, 9.48, 9.1, 9.1, 9.1, 8.82, 8.82, 8.82, 8.82, 8.82, 8.82, 8.82, 8.82, 8.82, 8.82, 9.07, 8.68, 8.28, 8.0, 7.48, 6.95, 6.28, 5.49, 5.49, 5.59, 5.59, 5.35, 5.35, 4.74, 4.43, 4.11, 4.11, 3.49, 3.48, 3.14, 3.39, 3.13, 1.34, 1.34, 0.89, 0.6, 0.71, 0.65, 1.33, 1.88, 2.4, 3.13, 7.6, 9.26, 8.32, 10.12, 15.13, 17.79, 16.25, 13.21, 10.84, 10.19, 9.83, 8.91, 8.24, 6.36, 4.52, 5.86, 6.54, 6.94, 6.94, 6.94, 6.94, 6.97, 6.97, 6.97, 6.97, 7.55, 7.55, 7.55, 7.55, 7.55, 7.55, 7.81, 7.81, 7.81, 8.15, 8.15, 8.38, 8.38, 8.38, 8.73, 8.73, 8.73, 8.94, 8.94, 8.94, 9.21, 9.21, 9.21, 9.21, 9.21, 9.21, 9.21, 9.48, 9.1, 9.1, 8.93, 8.55, 8.82, 8.82, 8.82, 8.82, 8.82, 8.82, 8.82, 8.43, 8.43, 8.43, 8.68, 8.15, 7.76, 7.76, 7.48, 6.95, 6.03, 5.49, 5.01, 5.35, 5.35, 5.35, 4.74, 4.74, 4.12, 4.11, 3.49, 3.48, 3.43, 3.82, 3.58, 3.13, 3.13, 1.2, 0.99, 0.71, 0.71, 1.24, 1.86, 2.24, 3.13, 6.26, 6.94, 5.69, 7.64, 13.43, 17.38, 16.4, 14.79, 12.49, 10.7, 9.36, 7.56, 3.6, 3.45, 4.09, 4.66, 5.6, 6.0, 6.13, 6.13, 6.13, 6.97, 6.97, 6.97, 6.97, 7.55, 7.55, 7.55, 7.55, 7.55, 7.55, 7.81, 7.81, 7.81, 8.15, 8.15, 8.38, 8.38, 8.38, 8.73, 8.73, 8.73, 8.73, 8.94, 8.94, 8.94, 8.94, 9.21, 9.21, 9.21, 9.21, 9.21, 8.84, 9.1, 9.1, 8.93, 8.55, 8.55, 8.82, 8.82, 8.82, 8.82, 8.43, 8.43, 8.43, 8.43, 8.43, 7.9, 8.15, 7.76, 7.61, 7.23, 7.07, 6.56, 6.03, 5.29, 4.74, 4.74, 4.74, 4.74, 4.43, 4.12, 4.11, 3.49, 3.48, 3.43, 3.72, 3.82, 3.58, 3.13, 1.34, 1.2, 0.0, 0.0, 0.8, 1.26, 1.7, 2.68, 3.13, 4.84, 4.74, 6.08, 10.68, 14.46, 15.25, 15.14, 13.21, 9.81, 6.22, 3.98, 3.53, 3.45, 3.49, 4.09, 4.73, 5.31, 5.69, 5.69, 5.69, 6.97, 6.97, 6.97, 6.97, 7.27, 7.55, 7.55, 7.55, 7.55, 7.55, 7.81, 7.81, 7.81, 8.15, 8.15, 8.38, 8.38, 8.38, 8.73, 8.73, 8.73, 8.73, 8.73, 8.94, 8.94, 8.94, 9.21, 9.21, 9.21, 9.21, 8.84, 8.84, 9.1, 8.93, 8.93, 8.55, 8.55, 8.55, 8.82, 8.82, 8.82, 8.43, 8.43, 8.43, 8.27, 8.27, 7.9, 8.15, 7.61, 7.61, 7.23, 7.07, 6.7, 6.15, 5.29, 5.29, 4.71, 4.43, 4.12, 4.12, 4.12, 4.11, 3.49, 3.48, 3.16, 3.22, 2.6, 2.97, 2.24, 1.79, 1.79, 1.6, 0.57, 0.57, 0.8, 1.26, 2.12, 2.24, 2.4, 3.83, 5.05, 7.03, 9.3, 11.9, 14.27, 13.4, 4.92, 3.53, 3.58, 4.47, 4.43, 3.6, 3.16, 4.12, 4.37, 5.31, 5.31, 5.31, 6.97, 6.97, 6.97, 6.97, 7.27, 7.27, 7.55, 7.55, 7.55, 7.55, 7.55, 7.81, 8.15, 8.15, 8.15, 8.15, 8.38, 8.38, 8.38, 8.73, 8.73, 8.73, 8.73, 8.73, 9.01, 9.01, 9.01, 9.01, 8.65, 8.65, 8.65, 8.65, 8.93, 8.93, 8.55, 8.55, 8.55, 8.55, 8.55, 8.82, 8.82, 8.43, 8.43, 8.27, 8.27, 7.9, 7.9, 7.61, 7.61, 7.61, 7.23, 7.07, 7.07, 6.15, 5.59, 5.49, 5.29, 4.71, 4.11, 3.83, 3.83, 4.11, 3.49, 3.49, 3.2, 3.16, 2.53, 2.23, 1.79, 1.34, 1.79, 1.79, 1.7, 0.57, 0.57, 0.57, 1.26, 1.34, 1.79, 2.4, 3.74, 4.46, 5.09, 9.2, 13.96, 11.18, 5.81, 3.53, 2.91, 3.98, 5.36, 5.32, 3.72, 3.49, 3.48, 4.46, 4.46, 4.46, 6.97, 6.97, 6.97, 6.97, 7.27, 7.27, 7.27, 7.55, 7.55, 7.55, 7.55, 7.81, 8.15, 8.15, 8.15, 8.15, 8.15, 8.38, 8.38, 8.38, 8.38, 8.73, 9.01, 9.01, 9.01, 8.65, 8.65, 8.65, 8.65, 8.65, 8.65, 8.93, 8.93, 8.55, 8.55, 8.55, 8.55, 8.55, 8.55, 8.55, 8.82, 8.43, 8.43, 8.27, 7.9, 7.9, 7.35, 7.61, 7.61, 7.23, 7.07, 7.07, 7.07, 6.51, 6.15, 5.93, 5.59, 5.29, 4.71, 4.11, 4.11, 4.11, 3.49, 3.49, 3.49, 3.2, 2.41, 1.74, 0.8, 0.6, 0.95, 1.34, 2.12, 1.86, 1.26, 0.57, 0.6, 0.45, 0.89, 1.79, 2.6, 2.86, 3.83, 7.89, 15.63, 12.94, 7.57, 3.53, 2.4, 3.07, 4.3, 6.14, 5.16, 3.14, 3.14, 3.16, 3.16, 3.16, 6.97, 6.97, 6.97, 6.97, 6.97, 7.27, 7.27, 7.27, 7.55, 7.55, 7.55, 7.55, 7.81, 8.15, 8.15, 8.15, 8.15, 8.15, 8.38, 8.38, 8.38, 8.65, 8.65, 8.65, 8.65, 8.65, 8.65, 8.65, 8.65, 8.65, 8.65, 8.93, 8.55, 8.55, 8.55, 8.55, 8.55, 8.55, 8.55, 8.55, 8.55, 8.55, 8.43, 8.27, 8.27, 7.9, 7.35, 7.35, 7.23, 7.07, 7.07, 7.07, 6.7, 6.51, 6.51, 6.15, 5.93, 5.59, 5.29, 4.71, 4.37, 4.11, 4.11, 4.11, 3.83, 3.49, 2.68, 1.6, 0.71, 0.0, 0.0, 0.54, 1.49, 1.49, 1.58, 0.57, 0.0, 0.0, 0.45, 0.89, 1.79, 2.4, 3.32, 14.67, 16.48, 14.23, 10.26, 4.92, 2.91, 2.21, 3.14, 6.13, 5.94, 4.0, 3.14, 3.14, 3.14, 3.14, 6.97, 6.97, 6.97, 6.97, 6.97, 7.27, 7.27, 7.27, 7.27, 7.55, 7.55, 7.55, 7.55, 7.81, 8.15, 8.15, 8.15, 8.15, 8.15, 8.38, 8.65, 8.65, 8.65, 8.65, 8.65, 8.65, 8.65, 8.65, 8.65, 8.65, 8.55, 8.55, 8.55, 8.55, 8.55, 8.55, 8.55, 8.55, 8.55, 8.55, 8.55, 8.18, 8.0, 8.27, 8.27, 7.9, 7.35, 7.35, 6.79, 7.07, 7.07, 7.07, 6.51, 6.51, 6.15, 6.15, 5.93, 5.93, 5.59, 5.01, 4.94, 4.71, 4.12, 4.12, 4.12, 3.84, 3.49, 3.12, 0.71, 0.0, 0.0, 0.0, 0.7, 0.0, 0.0, 0.0, 0.0, 0.0, 0.63, 0.63, 0.89, 1.34, 8.01, 13.41, 15.65, 13.86, 10.71, 7.12, 3.39, 2.53, 3.16, 6.25, 6.94, 4.93, 4.0, 3.49, 3.49, 3.49, 6.97, 6.97, 6.97, 6.97, 6.97, 6.97, 7.27, 7.27, 7.27, 7.55, 7.55, 7.55, 7.55, 7.55, 7.81, 7.81, 7.81, 8.15, 8.15, 8.44, 8.65, 8.65, 8.65, 8.65, 8.65, 8.65, 8.65, 8.29, 8.29, 8.29, 8.55, 8.55, 8.55, 8.55, 8.55, 8.55, 8.55, 8.37, 8.55, 8.55, 8.18, 8.0, 8.0, 8.0, 7.9, 7.9, 7.35, 7.35, 6.79, 7.07, 7.07, 6.7, 6.51, 6.15, 6.15, 5.93, 5.93, 5.93, 5.93, 5.59, 5.01, 5.01, 4.43, 4.43, 4.42, 4.12, 4.12, 3.49, 1.4, 1.2, 1.4, 0.65, 0.0, 0.0, -0.89, 0.0, 0.0, 0.0, 0.0, 0.0, 0.0, 0.63, 5.36, 10.26, 12.49, 11.18, 8.49, 5.31, 3.07, 2.51, 4.11, 6.59, 7.2, 5.6, 4.52, 4.4, 4.4, 4.4, 6.97, 6.97, 6.97, 6.97, 6.97, 6.97, 6.97, 7.27, 7.27, 7.55, 7.55, 7.55, 7.55, 7.55, 7.55, 7.81, 7.81, 7.81, 7.81, 8.08, 8.08, 8.44, 8.65, 8.65, 8.65, 8.29, 8.29, 8.29, 8.29, 8.55, 8.55, 8.55, 8.55, 8.55, 8.55, 8.37, 8.37, 8.0, 8.0, 8.0, 8.0, 8.0, 8.0, 8.27, 7.9, 7.72, 7.35, 7.35, 6.79, 6.79, 6.7, 6.51, 6.51, 6.15, 6.15, 5.93, 5.93, 5.93, 5.93, 5.59, 5.59, 5.35, 4.74, 4.74, 4.45, 4.45, 4.12, 3.72, 3.47, 2.41, 1.49, 1.24, 0.6, 0.0, -0.0, 0.0, 0.0, 0.0, 0.0, 0.0, -0.54, 1.24, 2.91, 6.66, 9.39, 8.94, 7.12, 4.43, 2.5, 1.33, 2.66, 5.38, 6.25, 6.0, 4.66, 5.05, 5.05, 5.05, 6.67, 6.67, 6.67, 6.97, 6.97, 6.97, 6.97, 6.97, 7.27, 7.55, 7.55, 7.55, 7.55, 7.55, 7.55, 7.55, 7.55, 7.81, 7.81, 8.08, 8.08, 8.08, 8.08, 8.29, 8.29, 8.29, 8.29, 8.29, 8.55, 8.55, 8.55, 8.55, 8.55, 8.37, 8.37, 8.37, 8.37, 8.0, 8.0, 8.0, 8.0, 8.0, 8.27, 7.9, 7.72, 7.72, 7.35, 7.35, 6.79, 6.79, 6.7, 6.51, 6.51, 6.15, 6.15, 5.93, 5.93, 5.93, 5.93, 5.93, 5.59, 5.35, 5.06, 4.75, 4.75, 4.75, 4.75, 4.1, 3.85, 2.3, 1.49, 1.24, 0.57, 0.0, 0.0, 0.0, 0.63, 0.0, 0.0, -0.65, -0.53, 0.0, 2.15, 4.09, 7.28, 7.92, 6.67, 4.92, 3.09, 1.2, 0.59, 2.07, 4.12, 6.54, 5.43, 3.74, 3.74, 3.74, 6.67, 6.67, 6.67, 6.67, 6.67, 6.67, 6.97, 6.97, 7.27, 7.55, 7.55, 7.55, 7.55, 7.55, 7.55, 7.55, 7.55, 7.55, 8.08, 8.08, 8.08, 8.08, 8.08, 8.08, 8.29, 8.29, 8.29, 8.55, 8.55, 8.55, 8.55, 8.55, 8.37, 8.37, 8.37, 8.0, 8.0, 8.0, 8.0, 8.0, 8.0, 8.27, 7.9, 7.9, 7.72, 7.72, 7.35, 7.15, 6.79, 6.79, 6.23, 6.51, 6.51, 6.15, 6.15, 5.93, 5.93, 5.93, 5.93, 5.65, 5.06, 5.06, 5.06, 5.06, 4.75, 4.75, 4.47, 4.47, 4.1, 2.4, 1.49, 0.65, 0.0, 0.0, 0.0, 0.0, 0.71, 0.57, 0.0, -0.54, -0.65, 0.0, 1.33, 4.46, 7.89, 9.11, 8.46, 6.71, 5.81, 3.58, 1.24, 0.53, 3.14, 4.93, 3.82, 3.13, 3.13, 3.13, 6.35, 6.35, 6.67, 6.67, 6.67, 6.67, 6.95, 6.95, 7.27, 7.27, 7.55, 7.55, 7.55, 7.55, 7.55, 7.55, 7.55, 7.55, 7.85, 7.85, 8.08, 8.08, 8.08, 8.08, 8.08, 8.08, 8.37, 8.37, 8.37, 8.37, 8.37, 8.37, 8.37, 8.37, 8.0, 8.0, 8.0, 8.0, 8.0, 8.0, 8.0, 7.9, 7.9, 7.9, 7.72, 7.35, 7.35, 7.15, 6.79, 6.79, 6.23, 6.23, 6.23, 6.23, 5.65, 5.65, 5.65, 5.65, 5.65, 5.65, 5.65, 5.37, 5.06, 5.06, 4.75, 4.47, 4.47, 5.08, 4.75, 4.1, 2.8, 0.65, 0.0, 0.0, 0.0, 0.0, 0.0, 0.0, 0.0, 0.0, 0.0, 0.0, 1.33, 4.81, 8.55, 10.93, 11.15, 9.39, 8.49, 8.02, 4.92, 2.91, 2.5, 2.91, 3.13, 3.07, 3.07, 3.07, 6.35, 6.35, 6.35, 6.67, 6.95, 6.95, 6.95, 6.95, 6.95, 6.95, 6.95, 7.27, 7.23, 7.23, 7.23, 7.23, 7.23, 7.23, 7.51, 7.51, 7.51, 8.08, 8.08, 8.08, 8.08, 8.37, 8.37, 8.37, 8.37, 8.37, 8.37, 8.37, 8.0, 8.0, 8.0, 8.0, 8.0, 8.0, 8.0, 8.27, 7.9, 7.9, 7.9, 7.9, 7.72, 7.35, 7.35, 7.15, 6.79, 6.79, 6.57, 6.23, 6.23, 6.23, 5.98, 5.98, 5.65, 5.65, 5.65, 5.65, 5.65, 5.37, 5.37, 5.37, 5.08, 4.75, 4.75, 5.08, 5.38, 4.75, 3.45, 0.65, 0.0, 0.0, 0.0, 0.0, 0.0, 0.0, 0.0, 0.0, 0.0, 0.61, 2.0, 4.43, 8.14, 10.93, 11.6, 10.73, 9.81, 9.81, 8.91, 6.26, 3.58, 3.13, 3.39, 4.27, 4.27, 4.27, 6.35, 6.35, 6.35, 6.65, 6.95, 6.95, 6.95, 6.95, 6.95, 6.95, 6.95, 6.95, 6.95, 6.95, 6.95, 7.23, 7.23, 7.23, 7.51, 7.51, 7.51, 7.51, 7.73, 8.08, 8.08, 8.37, 8.37, 8.37, 8.37, 8.37, 8.0, 8.0, 8.0, 8.0, 8.0, 8.0, 8.0, 8.27, 8.27, 7.9, 7.9, 7.9, 7.9, 7.9, 7.72, 7.35, 7.35, 7.15, 7.15, 6.79, 6.57, 6.23, 6.23, 6.23, 5.98, 5.98, 5.98, 5.98, 5.65, 5.65, 5.65, 5.65, 5.08, 5.08, 5.08, 5.08, 5.08, 5.1, 5.1, 4.47, 3.85, 2.4, 1.11, 1.27, 0.0, 0.0, -0.57, 0.0, 0.0, 0.0, 0.0, 0.7, 2.11, 3.9, 7.07, 9.83, 10.7, 10.28, 9.81, 9.36, 9.26, 7.45, 5.64, 4.52, 4.93, 5.6, 5.6, 5.6, 6.35, 6.35, 6.35, 6.65, 6.95, 6.95, 6.95, 6.95, 6.95, 6.95, 6.95, 6.95, 6.95, 6.95, 6.95, 7.23, 7.23, 7.23, 7.51, 7.51, 7.51, 7.51, 7.73, 8.08, 8.08, 8.37, 8.37, 8.37, 8.37, 8.37, 8.0, 8.0, 8.0, 8.0, 8.0, 8.0, 8.0, 8.27, 8.27, 7.9, 7.9, 7.9, 7.9, 7.9, 7.72, 7.35, 7.35, 7.15, 7.15, 6.79, 6.57, 6.23, 6.23, 6.23, 5.98, 5.98, 5.98, 5.98, 5.65, 5.65, 5.65, 5.65, 5.08, 5.08, 5.08, 5.08, 5.08, 5.1, 5.1, 4.47, 3.85, 2.4, 1.11, 1.27, 0.0, 0.0, -0.57, 0.0, 0.0, 0.0, 0.0, 0.66, 2.11, 3.79, 6.06, 8.14, 9.26, 9.83, 9.81, 9.72, 9.58, 8.91, 7.89, 6.94, 6.54, 6.94, 6.94, 6.94]}, {"header": {"dx": 0.06612293990616946, "dy": 0.0552356325346848, "nx": 98, "ny": 59, "la1": 35.046912555036876, "la2": 31.78801023549047, "lo1": -121.43107172385933, "lo2": -114.95102361305473, "refTime": "2026040704", "parameterCategory": 1, "parameterNumber": 3}, "data": [-8.78, -8.78, -8.78, -8.78, -8.78, -8.19, -8.19, -7.59, -7.55, -6.64, -5.71, -4.75, -2.41, -1.2, -0.8, -0.4, 0.0, -0.45, -0.63, -0.89, -0.45, 0.0, 0.0, 0.65, 0.76, 0.0, 0.0, 0.0, 0.73, 1.47, 2.35, 0.76, -0.7, -1.9, -1.9, -1.61, -1.61, -1.16, -1.9, -2.24, -3.58, -4.43, -5.94, -6.99, -7.27, -8.37, -9.66, -10.98, -6.09, 1.2, 4.8, 4.84, 5.46, 6.08, 6.39, 6.32, 6.24, 5.38, 4.5, 4.5, 3.88, 3.06, 2.99, 3.79, 3.9, 4.16, 4.56, 4.71, 4.5, 4.5, 4.4, 4.01, 3.02, 2.28, 2.35, 3.06, 2.97, 2.82, 2.34, 1.5, 1.49, 2.12, 2.04, 1.23, 0.7, 0.61, 0.76, 1.2, 0.65, 0.0, -0.66, -1.27, -1.23, -1.94, -2.11, -2.04, -1.76, -1.88, -8.78, -8.78, -8.78, -8.78, -8.45, -8.19, -7.86, -8.15, -7.55, -7.25, -6.28, -4.43, -2.41, -1.61, -1.6, -1.2, -1.2, -1.34, -1.34, -1.7, -1.79, -1.6, -0.71, 0.0, 0.0, 0.0, 0.0, 0.0, 0.61, 1.33, 1.27, 0.0, -1.2, -1.86, -1.86, -1.88, -2.51, -2.0, -2.07, -2.21, -3.39, -6.17, -8.0, -9.52, -10.9, -12.39, -12.87, -7.9, 0.0, 4.4, 4.46, 5.09, 5.46, 5.72, 5.72, 6.01, 5.94, 5.38, 5.28, 4.71, 3.78, 3.7, 3.91, 4.29, 4.36, 4.65, 4.46, 4.6, 4.5, 4.6, 4.58, 4.68, 3.69, 2.28, 2.23, 2.23, 2.97, 2.82, 2.34, 1.5, 1.49, 2.12, 2.04, 1.23, 0.7, 0.61, 0.76, 1.2, 0.65, 0.0, -0.66, -1.27, -1.23, -1.94, -2.11, -2.04, -1.76, -1.88, -8.78, -8.78, -8.45, -8.45, -8.45, -8.73, -8.15, -8.15, -7.85, -7.51, -6.87, -5.98, -2.84, -2.21, -1.24, -0.8, -1.26, -1.7, -2.24, -2.54, -2.63, -3.13, -2.8, -2.53, -1.6, -0.73, 0.0, 0.0, 0.65, 0.65, 0.0, -1.58, -2.68, -2.68, -2.4, -2.86, -2.79, -3.43, -3.64, -3.43, -5.31, -8.93, -11.44, -13.1, -13.14, -11.76, -6.88, 0.0, 4.46, 4.81, 4.81, 5.09, 5.46, 5.43, 5.38, 6.06, 6.01, 5.38, 5.28, 4.71, 4.07, 3.8, 4.56, 5.37, 5.37, 5.59, 5.38, 5.52, 5.41, 5.86, 5.4, 5.29, 3.82, 2.31, 1.49, 1.55, 1.52, 2.99, 2.02, 0.73, 1.44, 1.49, 1.49, 0.78, 0.66, 0.61, 1.16, 1.16, 0.61, 0.0, -0.66, -1.23, -1.94, -2.44, -2.73, -2.73, -1.8, -1.9, -8.45, -8.45, -8.45, -8.73, -8.73, -8.38, -8.15, -7.81, -8.08, -7.8, -7.44, -7.15, -4.46, -2.53, -1.9, -1.9, -1.9, -1.86, -2.68, -2.63, -2.4, -2.24, -2.68, -3.07, -3.07, -1.88, -0.61, 0.0, 0.7, 0.0, -1.49, -3.58, -4.24, -4.02, -3.51, -3.58, -4.54, -5.37, -6.68, -7.68, -8.94, -10.53, -10.53, -8.94, -6.64, -2.88, 0.7, 4.43, 4.36, 4.36, 4.75, 5.09, 5.46, 5.43, 6.08, 6.39, 5.94, 5.38, 5.52, 4.6, 3.88, 4.46, 5.37, 5.72, 6.32, 6.24, 6.14, 6.17, 7.09, 6.94, 6.79, 5.62, 4.66, 2.87, 1.36, 0.0, 0.0, 0.0, 1.55, 0.75, 0.64, 0.72, 1.55, 0.72, 0.59, 1.33, 0.59, 0.66, 0.0, -0.57, -1.23, -1.23, -2.2, -2.73, -2.79, -2.07, -1.33, -1.61, -8.45, -8.45, -8.73, -8.73, -8.38, -8.38, -8.15, -8.08, -8.08, -8.0, -7.44, -7.35, -4.46, -2.86, -2.86, -2.86, -2.5, -2.8, -3.07, -3.53, -3.2, -2.23, -1.2, -0.89, -1.34, -2.6, -2.23, -1.4, -0.76, 0.0, -2.21, -4.92, -7.45, -8.91, -9.33, -9.33, -9.21, -9.38, -10.29, -10.53, -9.3, -5.72, -2.79, -0.66, 0.0, 1.41, 3.55, 3.79, 3.9, 4.36, 4.81, 5.46, 5.46, 6.08, 6.06, 6.32, 5.49, 5.38, 4.6, 3.95, 4.0, 4.36, 5.43, 6.44, 7.02, 6.58, 6.14, 5.86, 6.31, 6.87, 6.2, 5.41, 5.09, 4.58, 3.04, 0.0, -0.7, -0.74, 0.74, 0.67, 0.63, 0.66, 0.67, 0.67, 0.66, 0.0, 0.0, 0.0, -0.63, -1.23, -1.23, -1.23, -1.35, -2.79, -2.5, -0.65, -0.51, -1.16, -8.73, -8.73, -8.73, -8.73, -8.38, -8.38, -8.65, -8.08, -8.37, -8.0, -7.9, -7.61, -4.84, -3.58, -2.86, -3.32, -3.74, -4.15, -5.59, -6.26, -6.7, -5.2, -3.6, -1.58, -1.34, -3.13, -3.51, -3.74, -3.22, -2.41, -2.84, -3.97, -6.71, -9.39, -10.7, -10.52, -10.75, -10.8, -9.92, -7.6, -2.91, -1.58, -0.61, 0.0, 0.0, 0.79, 3.2, 3.79, 4.29, 4.43, 4.46, 5.09, 5.43, 5.43, 5.37, 4.46, 4.71, 3.8, 3.88, 3.95, 3.69, 4.12, 6.0, 6.08, 6.7, 6.95, 6.14, 5.49, 5.21, 5.18, 4.65, 3.91, 4.66, 4.71, 3.79, 2.28, 0.0, 0.0, 0.73, 2.12, 1.23, 0.0, 0.0, 0.0, 0.0, -0.66, -1.41, -1.23, -1.35, -2.0, -1.8, -1.23, -1.94, -2.23, -1.26, 0.0, 0.0, -0.59, -8.73, -8.73, -8.73, -8.73, -8.38, -8.65, -8.65, -8.29, -8.55, -8.27, -8.15, -8.0, -5.05, -2.86, -4.29, -2.91, -4.8, -5.82, -6.54, -6.36, -4.47, -4.73, -6.54, -7.21, -6.71, -6.26, -8.05, -8.05, -7.52, -5.16, -3.47, -3.58, -3.58, -5.64, -8.67, -10.05, -10.93, -10.79, -7.76, -2.91, 0.0, -0.63, -1.4, -1.99, -1.03, 1.41, 4.65, 5.59, 5.3, 4.47, 4.19, 4.81, 5.43, 5.06, 4.65, 3.55, 3.2, 2.26, 2.31, 2.99, 2.98, 4.0, 4.4, 5.05, 5.46, 6.01, 6.14, 4.0, 3.09, 2.35, 2.25, 2.28, 2.22, 2.35, 2.37, 2.37, 2.31, 2.26, 2.0, 1.44, 1.49, 0.0, -1.41, -1.41, -1.35, -1.94, -2.0, -2.48, -2.0, -2.48, -2.48, -2.44, -2.73, -1.88, 0.0, 0.0, 0.0, -0.66, -8.73, -8.73, -8.73, -8.73, -8.38, -8.65, -8.65, -8.65, -8.55, -8.82, -8.68, -8.72, -6.28, -4.22, -4.43, -4.46, -4.46, -5.46, -5.05, -3.84, -1.16, 0.0, -1.61, -4.43, -8.05, -9.39, -9.39, -9.39, -7.54, -6.64, -5.73, -5.73, -7.15, -8.67, -9.18, -9.6, -9.4, -8.91, -6.4, -2.23, 0.0, 0.0, -1.26, -1.24, 0.0, 2.23, 3.49, 4.65, 5.3, 5.15, 3.79, 4.43, 5.06, 4.65, 4.16, 3.0, 3.0, 2.35, 2.26, 3.11, 3.16, 3.51, 3.51, 4.24, 4.46, 4.36, 4.5, 3.06, 0.74, 0.0, 0.0, 0.0, 0.0, 0.0, 0.0, 0.68, 2.19, 3.11, 2.35, 0.79, 0.0, -0.69, -2.06, -3.32, -3.08, -2.66, -2.48, -2.79, -2.79, -3.16, -3.15, -3.48, -3.14, -1.26, 0.0, -0.59, -0.61, -1.27, -8.73, -8.73, -8.73, -8.73, -9.01, -8.65, -8.65, -8.65, -9.1, -9.35, -9.71, -10.42, -9.75, -9.97, -7.89, -7.12, -7.35, -6.94, -4.0, -2.5, -0.85, 0.0, 0.0, -0.73, -3.72, -5.29, -4.47, -4.41, -7.4, -8.24, -10.28, -12.52, -13.82, -13.23, -11.4, -8.63, -7.95, -7.08, -3.58, -0.89, -0.0, -0.0, -0.0, -0.0, -0.0, 0.45, 1.6, 1.4, 2.98, 4.56, 6.01, 5.43, 5.37, 4.65, 4.29, 3.79, 3.79, 3.09, 3.09, 3.11, 3.84, 4.15, 3.95, 4.24, 3.84, 3.33, 3.06, 2.35, 0.0, -0.72, -0.79, -1.36, -1.45, -1.36, -0.72, 0.0, 0.0, 0.77, 0.75, 0.71, 0.77, 0.0, -1.36, -2.88, -3.64, -2.66, -1.76, -2.79, -3.43, -3.43, -3.78, -3.72, -3.07, -1.79, -1.2, -1.23, -1.19, -1.33, -8.73, -8.73, -8.73, -8.73, -9.01, -9.01, -9.21, -9.21, -9.48, -9.63, -10.16, -11.08, -10.91, -12.04, -11.8, -11.84, -12.53, -12.58, -12.31, -12.02, -10.52, -9.75, -7.13, -5.69, -6.32, -6.0, -4.15, -3.58, -6.88, -10.68, -10.73, -7.98, -4.47, -4.47, -8.94, -7.98, -4.57, -2.91, -0.89, -0.0, -0.0, -0.57, -0.6, -0.6, -0.63, -0.89, -0.45, 0.0, 1.2, 3.48, 5.43, 5.72, 5.37, 4.65, 4.29, 4.56, 3.91, 2.99, 3.09, 2.8, 4.11, 6.0, 7.4, 5.43, 4.81, 4.01, 3.6, 3.33, 0.63, 0.0, -1.6, -1.44, -1.36, -0.67, 0.0, -0.65, -0.74, -0.69, 0.0, 0.0, 0.71, 1.39, 0.0, -1.35, -2.11, -1.88, -1.19, -2.0, -3.16, -3.72, -4.11, -3.53, -2.63, -2.68, -2.21, -2.44, -2.44, 0.0, -8.73, -8.73, -8.73, -8.73, -8.94, -9.21, -9.21, -9.21, -9.76, -9.76, -10.3, -11.22, -10.96, -11.08, -10.43, -12.37, -13.23, -14.78, -15.46, -16.82, -17.36, -17.26, -16.19, -13.72, -11.34, -7.31, -3.95, -2.6, -3.04, -4.02, -2.68, -0.45, 0.0, 0.0, -3.13, -6.71, -4.47, -1.79, -0.45, 0.0, 0.0, -0.0, 0.0, -1.34, -1.79, -1.34, -0.89, 0.0, 1.58, 2.8, 3.45, 3.79, 3.72, 3.64, 3.0, 3.09, 3.15, 2.23, 1.49, 2.11, 5.09, 7.47, 7.2, 6.94, 7.47, 6.7, 6.01, 5.21, 3.11, 0.7, 0.0, 0.0, 0.0, 0.0, 0.0, 0.0, -0.65, -0.72, -0.78, -0.71, 0.0, 1.33, 2.06, 0.0, -0.64, -0.67, 0.0, -0.63, -1.6, -2.79, -3.98, -3.58, -3.53, -3.58, -3.6, -3.43, -1.84, 1.7, -8.73, -8.73, -8.73, -8.94, -8.94, -8.94, -9.58, -9.76, -9.76, -10.3, -10.68, -10.96, -10.96, -10.51, -9.3, -8.55, -7.61, -9.71, -12.11, -13.99, -12.6, -10.66, -9.6, -10.23, -6.17, -2.24, -0.63, -0.0, 0.0, 0.0, 0.0, 0.45, 1.2, 0.95, 0.0, -2.68, -2.49, -0.63, 0.0, 0.0, 1.34, 1.34, 0.45, 0.0, -1.79, -0.89, 0.0, 1.79, 2.54, 2.23, 1.9, 1.16, 0.59, 0.0, 0.7, 0.0, 0.76, 0.77, 0.0, 1.33, 6.07, 7.71, 7.89, 7.45, 8.46, 8.63, 7.69, 6.64, 4.37, 2.99, 2.0, 1.44, 1.36, 0.79, 0.0, 0.0, -0.77, -0.74, -1.36, -0.72, 0.0, 0.7, 1.55, 1.6, 1.28, 0.65, 0.71, 0.0, 0.0, -1.2, -3.07, -3.98, -3.98, -4.02, -4.0, -3.72, -0.0, 3.07, -8.73, -8.73, -8.94, -8.94, -8.94, -9.3, -9.3, -9.5, -9.86, -10.41, -10.41, -10.96, -11.07, -10.8, -9.42, -7.55, -5.38, -5.69, -7.51, -8.73, -7.9, -5.08, -3.37, -1.54, -0.5, 0.0, 0.54, 0.63, 0.45, 0.63, -0.0, -0.0, 0.57, 0.57, 0.63, 0.6, -0.0, 0.6, -0.0, -0.0, 0.45, 0.45, 0.0, 0.0, -1.34, -0.95, 0.6, 0.95, 0.63, 0.0, -0.57, -1.61, -2.51, -3.15, -4.19, -4.19, -1.83, 0.0, 0.0, 1.24, 4.92, 6.66, 7.45, 7.6, 8.05, 6.71, 6.13, 6.68, 5.13, 4.83, 5.28, 4.5, 3.15, 1.58, 0.0, -1.54, -1.6, -0.74, 0.0, 0.0, 0.0, 0.0, 0.0, 0.0, 2.18, 2.23, 1.54, 0.71, 0.57, 0.59, -0.54, -2.68, -3.98, -4.02, -4.3, -1.7, 2.23, 2.79, -8.73, -8.73, -8.94, -8.94, -9.3, -9.3, -9.3, -9.86, -9.86, -10.41, -10.41, -10.79, -10.7, -11.07, -10.01, -8.5, -6.67, -6.34, -6.64, -6.98, -6.97, -5.2, -3.34, -1.66, -1.12, -0.55, -0.55, -0.55, -0.57, 0.0, -0.0, -0.0, -0.0, -0.0, -0.0, 0.6, 0.6, 0.63, -0.0, -0.0, -0.63, -0.89, -1.34, -2.24, -3.13, -0.0, 0.6, -0.0, -1.34, -2.24, -2.12, -3.6, -5.58, -4.98, -3.58, -3.6, -3.51, -2.41, -1.98, 1.2, 2.5, 4.34, 5.81, 6.26, 4.87, 4.02, 3.53, 2.79, 3.97, 5.0, 6.88, 6.31, 3.78, 0.74, -1.47, -2.17, -0.72, 0.0, 0.7, 0.73, 0.73, 0.0, 0.0, 0.0, 0.69, 0.76, 1.5, 1.54, 1.26, 1.23, 0.66, -0.65, -3.07, -3.58, -2.91, 1.16, 2.51, 2.79, -8.73, -8.73, -8.94, -8.94, -9.3, -9.3, -9.66, -9.86, -9.86, -10.23, -10.41, -10.51, -10.51, -10.51, -10.23, -9.42, -8.5, -7.3, -6.69, -6.98, -7.24, -6.5, -5.77, -4.74, -4.07, -2.8, -2.23, -1.69, -1.7, -1.2, 0.0, 0.0, 0.63, -0.0, 1.26, 1.58, 1.26, 0.63, -0.0, -0.63, -1.34, -2.68, -3.13, -2.24, -1.34, 1.79, 2.4, -0.0, -0.63, -1.79, -2.68, -2.86, -2.21, -0.6, 0.0, -0.63, -3.51, -5.6, -3.48, 0.0, 1.49, 1.9, 2.12, 1.6, 1.6, 1.7, 0.89, 0.63, 2.12, 4.0, 5.06, 4.71, 2.25, 0.0, -1.52, 0.0, 1.2, 1.88, 2.3, 2.11, 1.52, 0.74, 0.0, 0.0, -1.3, -1.52, -0.71, 0.0, 1.32, 1.45, 1.3, 0.0, -1.58, -2.68, -0.0, 3.14, 2.53, 2.53, -8.73, -8.73, -8.94, -8.94, -9.3, -9.3, -9.66, -9.59, -9.59, -9.94, -10.15, -10.15, -10.15, -10.51, -10.51, -10.01, -9.13, -8.24, -7.61, -6.98, -6.7, -6.27, -6.22, -5.92, -4.7, -3.5, -2.9, -2.3, -2.28, -2.23, -2.36, -1.16, 0.0, 0.0, 2.24, 1.79, 1.34, 0.63, -0.0, 0.0, -1.34, -2.12, -1.9, 0.0, 0.0, 2.0, 2.53, 1.2, -0.0, 0.0, -0.89, -0.63, 0.0, 1.26, 1.6, 0.0, -2.8, -4.6, -1.86, 0.45, 1.2, 1.34, 0.45, 0.0, 0.0, 0.0, -0.4, -0.0, 2.24, 2.86, 2.2, 0.0, -0.76, -1.56, -0.66, 2.4, 4.24, 4.46, 2.98, 3.22, 3.2, 3.09, 2.18, 0.76, 0.0, -2.07, -3.0, -1.55, 0.0, 0.0, 0.69, -0.53, -0.89, 1.26, 3.07, 3.39, 2.79, 2.79, -8.73, -8.73, -8.94, -9.3, -9.3, -9.3, -9.37, -9.59, -9.59, -9.94, -9.94, -9.94, -9.94, -9.94, -9.94, -10.01, -9.46, -8.87, -7.95, -6.97, -6.31, -5.62, -5.32, -4.58, -2.85, -2.35, -2.35, -2.3, -2.34, -3.37, -3.94, -3.37, -2.2, 0.0, 0.45, 1.34, 1.34, 0.0, 0.0, -0.89, -3.13, -2.17, -2.4, -1.2, 0.0, 1.58, 2.53, 2.4, 2.24, 2.24, 2.24, 2.0, 2.8, 2.21, 1.2, 0.0, -1.19, 0.0, 2.53, 3.39, 3.2, 2.21, 1.2, 0.0, 0.0, 0.0, 0.0, -0.0, 0.0, 0.0, -1.1, -4.28, -4.6, -3.79, 0.0, 3.58, 5.64, 5.46, 4.43, 3.64, 3.0, 3.09, 2.12, 1.32, 0.77, 0.0, -3.14, -1.13, -0.66, -0.7, -0.67, -0.51, 0.0, 1.34, 3.13, 3.53, 3.07, 3.07, -8.73, -8.73, -8.94, -9.3, -9.3, -9.3, -9.37, -9.37, -9.59, -9.59, -9.94, -9.94, -9.94, -9.94, -9.94, -9.66, -9.72, -9.17, -7.95, -6.31, -5.86, -5.83, -5.14, -3.6, -1.73, -1.76, -2.29, -2.87, -3.58, -4.03, -5.14, -5.23, -4.44, -3.04, -0.99, 0.0, 0.0, -0.89, -1.7, -2.12, -2.6, -2.68, -2.68, -2.24, 0.0, 1.9, 2.8, 2.68, 2.68, 2.8, 2.53, 2.84, 2.84, 3.35, 3.35, 2.23, 1.08, 3.22, 4.11, 3.79, 2.73, 2.48, 1.27, 1.13, 0.99, 0.0, 0.0, -0.8, -3.04, -5.37, -5.44, -5.0, -3.64, -1.84, 0.89, 2.68, 3.32, 3.79, 3.11, 2.29, 1.47, 0.69, 0.0, 0.0, 0.0, 0.0, -1.24, -1.9, -2.15, -2.0, -2.0, -0.66, 0.54, 2.24, 3.13, 3.53, 2.68, 2.68, -8.73, -8.73, -8.94, -9.3, -9.3, -9.3, -9.37, -9.37, -9.37, -9.59, -9.59, -9.94, -9.94, -9.94, -10.41, -9.66, -9.37, -9.08, -7.32, -5.89, -5.8, -7.1, -6.92, -5.51, -4.58, -5.3, -4.74, -5.62, -6.09, -6.46, -6.5, -5.86, -5.69, -4.44, -2.77, -0.55, 0.0, -1.13, -1.49, -2.23, -2.4, -2.6, -2.68, -1.79, 1.79, 2.68, 3.13, 3.13, 2.8, 2.8, 2.84, 3.72, 3.72, 4.34, 4.8, 4.65, 3.22, 3.49, 3.49, 2.4, 1.08, 1.27, 1.27, 0.0, 0.71, 1.26, 0.95, 0.0, -2.51, -4.47, -2.12, 0.0, 0.76, 1.45, 0.76, 0.0, 0.0, 0.0, 0.0, 0.0, -0.72, -1.55, -2.18, -2.0, -2.18, -1.35, -1.16, -1.24, -3.45, -3.72, -3.14, -1.16, 1.26, 2.24, 3.07, 3.32, 2.68, 2.68, -8.73, -8.73, -8.73, -9.3, -9.3, -9.02, -9.02, -9.37, -9.37, -9.37, -9.59, -9.94, -9.94, -9.94, -10.51, -9.02, -9.3, -9.21, -8.03, -7.18, -7.69, -9.48, -9.84, -9.4, -10.43, -10.25, -10.25, -9.49, -9.22, -7.96, -6.97, -6.08, -5.29, -4.0, -2.89, -1.2, -0.58, -0.58, -0.58, -0.61, -1.13, -1.0, -0.53, 0.59, 2.23, 2.84, 3.2, 2.8, 2.8, 2.53, 2.53, 3.35, 4.34, 4.77, 2.6, 3.45, 4.47, 3.07, 1.6, 1.08, 0.0, 0.0, 0.0, 0.0, 1.34, 2.0, 1.86, 1.79, 0.65, 1.47, 2.99, 4.65, 4.67, 3.22, 0.0, -2.97, -6.06, -6.39, -3.79, -2.8, -3.0, -2.82, -3.15, -2.82, -2.35, -1.23, 0.0, 1.2, -2.68, -3.87, -3.53, -1.6, 1.34, 1.49, 1.9, 2.5, 2.5, 2.5, -8.73, -8.73, -8.73, -9.08, -9.02, -9.02, -9.02, -9.37, -9.37, -9.37, -9.37, -9.59, -9.94, -9.94, -9.94, -9.59, -9.3, -9.5, -10.41, -10.9, -11.76, -11.38, -11.67, -11.38, -12.01, -11.72, -10.45, -9.21, -7.95, -6.35, -5.72, -4.71, -3.83, -2.96, -1.65, -0.57, -0.58, -0.53, -0.57, -0.57, 0.0, 0.0, 0.0, 1.12, 1.7, 2.2, 2.53, 1.6, 1.4, 1.4, 2.21, 3.39, 4.47, 4.47, 5.2, 3.2, 4.81, 4.75, 2.2, 0.0, 0.0, 0.0, 0.0, 0.0, 2.12, 2.21, 2.4, 2.68, 3.97, 6.0, 7.06, 6.87, 5.25, 2.34, -1.56, -7.13, -11.94, -10.9, -8.32, -5.72, -3.9, -2.9, -2.31, -1.28, -0.74, 0.0, 1.88, 2.53, 1.27, -2.4, -2.6, -0.0, 1.2, 1.86, 1.88, 1.61, 2.23, 2.23, -8.73, -8.73, -8.73, -8.73, -8.78, -9.02, -9.02, -9.02, -9.37, -9.37, -9.37, -9.37, -9.94, -9.94, -9.94, -9.94, -9.59, -10.23, -11.52, -12.22, -11.36, -10.09, -10.09, -10.45, -10.76, -9.73, -8.18, -6.06, -4.44, -3.42, -3.45, -3.22, -2.4, -1.08, 0.0, 0.0, 0.0, -0.54, -1.14, -1.12, -0.57, 0.0, 0.0, 0.0, 1.14, 1.57, 1.41, 1.6, 1.4, 1.4, 1.9, 3.58, 4.02, 4.47, 4.92, 5.7, 5.59, 6.94, 4.43, 0.0, 0.0, 0.0, 0.0, 1.34, 2.54, 2.8, 3.2, 3.04, 3.07, 3.58, 3.9, 6.52, 5.3, 2.25, -6.06, -11.6, -14.53, -14.39, -11.85, -9.05, -6.44, -4.02, -3.0, -0.69, 0.0, 0.0, 0.59, 0.61, 0.0, -0.51, -1.34, -0.0, 1.2, 2.4, 2.53, 2.23, 1.84, 1.84, -8.45, -8.45, -8.45, -8.45, -8.78, -8.78, -8.78, -9.02, -9.37, -9.37, -9.37, -9.37, -9.71, -9.37, -9.59, -9.94, -10.01, -10.65, -10.99, -11.06, -9.21, -7.33, -7.33, -7.96, -8.57, -8.16, -6.4, -4.65, -2.87, -2.8, -2.37, -2.14, -1.16, -0.54, 0.0, 0.0, 0.0, 0.0, -1.07, -1.14, -1.12, -0.57, 0.0, 0.0, 0.53, 1.73, 1.19, 0.0, 0.0, 1.2, 2.4, 3.58, 4.02, 4.47, 4.92, 5.36, 4.47, 4.85, 4.29, 2.15, 0.0, -0.45, -0.0, 2.12, 3.32, 4.41, 3.51, 2.17, 2.17, 1.6, -0.0, 0.0, 1.23, 0.71, -1.79, -8.38, -12.72, -15.04, -14.38, -12.66, -9.45, -6.7, -4.43, -2.98, -2.88, -1.35, -0.66, -1.27, -2.73, -1.35, -0.59, 0.54, 1.2, 2.17, 3.07, 2.79, 2.21, 2.21, -8.45, -8.45, -8.45, -8.45, -8.45, -8.78, -8.78, -8.78, -9.02, -9.37, -9.08, -9.08, -9.08, -9.37, -9.71, -10.01, -10.06, -10.36, -10.4, -9.82, -8.87, -7.59, -6.53, -6.68, -6.9, -7.1, -6.4, -5.25, -4.62, -3.47, -2.87, -2.3, -1.16, -0.56, 0.0, 0.0, 0.0, 0.0, -0.59, -0.53, -0.53, -0.57, 0.0, 0.0, 0.58, 0.61, 0.0, 0.0, 0.0, 1.6, 2.53, 3.82, 3.82, 4.02, 4.47, 4.47, 2.17, 2.17, 2.23, 1.8, 0.61, -0.63, 0.6, 2.8, 4.15, 4.85, 4.02, 5.36, 2.24, 1.34, -1.34, -2.68, -0.72, 0.63, 0.71, -2.24, -7.52, -11.64, -13.35, -13.42, -11.57, -8.93, -7.28, -6.9, -6.08, -4.46, -4.09, -5.05, -3.14, 1.61, 1.47, 2.66, 1.84, 1.7, 2.17, 2.15, 1.9, 1.9, -8.45, -8.45, -8.45, -8.45, -8.45, -8.45, -8.78, -8.78, -8.78, -8.82, -9.08, -9.08, -9.08, -9.08, -9.42, -10.01, -10.06, -10.09, -9.8, -9.5, -8.87, -8.22, -7.55, -6.9, -6.46, -6.46, -5.77, -5.96, -5.73, -4.77, -4.13, -2.84, -2.25, -1.11, -0.56, 0.0, 0.0, 0.0, 0.0, 0.0, 0.0, 0.0, 0.0, 0.0, 0.0, 0.0, 0.0, 0.0, 0.54, 1.19, 1.57, 2.2, 2.84, 3.2, 3.58, 3.58, 3.58, 1.2, 0.0, 0.0, 0.0, 0.0, -0.0, 2.4, 4.24, 4.41, 4.02, 4.47, 3.58, -0.45, -3.07, -4.43, -2.17, 0.78, 2.21, 1.55, 0.0, -2.5, -8.37, -11.45, -12.5, -11.47, -9.7, -9.05, -7.47, -6.07, -6.55, -4.73, 0.0, 3.82, 5.44, 6.35, 3.78, 2.15, 1.2, 1.34, 1.7, 1.7, -8.45, -8.45, -8.45, -8.45, -8.45, -8.45, -8.78, -8.78, -8.5, -8.82, -8.82, -9.08, -9.08, -9.08, -9.42, -9.72, -9.72, -9.77, -9.48, -9.19, -9.21, -8.59, -8.2, -7.55, -6.68, -6.0, -5.8, -5.57, -5.28, -5.11, -4.65, -3.99, -2.84, -2.23, -1.71, -1.11, -0.56, -0.56, -0.57, -0.58, 0.0, 0.0, 0.0, 0.0, 0.0, 0.0, 0.0, 0.0, 0.0, 0.0, 0.53, 0.61, 1.08, 2.53, 3.2, 3.58, 3.13, 2.24, 0.0, -1.6, -0.61, 0.0, 0.0, 1.79, 2.6, 3.51, 4.02, 3.58, 1.7, 0.0, -2.4, -4.11, -2.82, 0.0, 1.48, 5.4, 5.68, 0.67, -3.49, -8.48, -12.14, -13.07, -11.56, -9.14, -5.72, -4.73, -6.07, -2.4, 2.91, 3.82, 3.82, 5.95, 5.64, 4.02, 1.84, 1.24, 1.49, 1.49, -8.45, -8.45, -8.45, -8.45, -8.45, -8.45, -8.45, -8.78, -8.5, -8.5, -8.82, -8.82, -9.08, -9.08, -9.13, -9.46, -9.46, -9.17, -9.48, -9.19, -9.21, -8.87, -8.22, -7.55, -7.13, -6.22, -5.77, -5.11, -5.32, -4.65, -4.48, -3.86, -3.39, -2.87, -2.9, -2.25, -2.25, -1.73, -1.73, -1.11, -1.18, -0.56, -0.56, 0.0, 0.0, 0.0, 0.0, 0.0, 0.0, 0.0, 0.0, 0.0, 0.0, 0.59, 0.8, 0.6, 1.58, 1.79, 0.0, -0.89, -1.58, -0.59, 0.0, 0.99, 4.47, 2.24, 2.24, 1.34, 0.0, -0.89, -2.4, -3.49, -4.56, -2.9, 0.77, 4.07, 3.69, 1.32, -1.84, -6.55, -10.32, -12.94, -12.5, -9.32, -6.64, -6.23, -4.0, 0.54, 3.14, 3.07, 2.91, 2.53, 5.3, 5.21, 4.02, 2.48, 1.33, 1.33, -8.45, -8.45, -8.45, -8.45, -8.45, -8.45, -8.45, -8.78, -8.5, -8.5, -8.82, -8.82, -8.82, -9.08, -9.13, -9.13, -9.46, -9.17, -9.17, -8.87, -8.59, -8.87, -8.22, -7.83, -7.13, -6.43, -5.77, -5.77, -5.11, -4.65, -3.99, -3.5, -3.53, -2.87, -2.9, -2.35, -2.25, -2.25, -1.73, -1.73, -1.11, -1.11, -0.56, 0.0, 0.54, 0.57, 0.0, 0.0, 0.0, 0.0, 0.0, 0.0, 0.0, 0.0, 0.0, 0.0, 0.0, 0.0, 0.63, -0.0, -1.79, -1.88, -1.27, 0.65, 2.6, 4.77, 1.7, 0.0, -1.34, -1.34, -1.86, -2.15, -4.36, -4.74, -2.3, -1.47, -1.41, -0.63, -1.16, -3.97, -7.89, -12.33, -13.09, -9.78, -7.54, -7.06, -2.4, 1.24, 1.84, 1.84, 1.24, 1.2, 2.66, 4.14, 4.61, 4.02, 1.94, 1.94, -8.19, -8.19, -8.19, -8.19, -8.45, -8.45, -8.45, -8.78, -8.5, -8.5, -8.5, -8.82, -8.82, -8.53, -8.85, -8.85, -8.85, -8.56, -8.87, -8.87, -8.87, -8.59, -8.23, -7.57, -7.31, -6.9, -6.46, -5.77, -5.11, -4.65, -3.99, -3.5, -3.37, -2.99, -2.87, -2.23, -2.35, -1.71, -1.71, -1.71, -1.16, -1.11, -0.56, 0.0, 0.79, 1.16, 0.56, -1.14, -1.71, -0.56, -0.53, 0.0, 0.0, 0.0, 0.0, -0.61, 0.0, 0.0, 0.0, -0.0, -1.34, -1.9, -1.4, 0.57, 2.4, 2.6, 2.6, 0.0, -2.12, -1.7, -1.86, -1.41, -2.82, -5.3, -8.68, -8.68, -5.09, -2.79, -2.0, -2.68, -3.98, -11.33, -12.95, -11.62, -7.81, -4.66, -1.0, 0.0, 0.0, 0.0, 0.0, 0.71, 1.13, 2.72, 3.4, 4.14, 3.47, 3.47, -8.19, -8.19, -8.19, -8.19, -8.19, -8.19, -8.19, -7.9, -8.22, -8.22, -8.5, -8.5, -8.82, -8.53, -8.53, -8.85, -8.85, -8.56, -8.87, -8.58, -8.58, -8.23, -7.96, -7.59, -7.32, -6.92, -6.25, -5.8, -4.65, -4.65, -3.99, -3.99, -3.5, -2.84, -2.87, -2.33, -2.23, -1.69, -1.69, -1.15, -1.15, -1.1, -0.56, -0.57, 0.0, 0.0, 0.0, -1.18, -1.7, -1.73, -1.19, -1.19, -0.54, -0.55, -0.57, -1.13, -1.2, -1.26, -0.45, -0.45, -1.79, -1.9, -0.57, 0.63, 1.2, 1.79, 2.68, 0.89, -1.26, -2.12, -3.07, -3.07, -1.52, -2.41, -7.63, -10.18, -7.59, -4.09, -2.91, -1.79, -3.07, -8.96, -11.6, -12.16, -10.51, -5.05, -2.23, -1.8, -1.27, -1.13, -0.54, 0.0, 0.0, 1.35, 2.12, 2.82, 2.6, 2.6, -8.19, -8.19, -8.19, -8.19, -8.19, -8.19, -8.19, -7.9, -7.9, -8.22, -8.22, -8.22, -8.5, -8.53, -8.53, -8.53, -8.53, -8.56, -8.24, -8.24, -8.24, -8.24, -7.59, -7.59, -7.59, -6.92, -6.27, -5.83, -4.48, -4.13, -4.13, -3.99, -3.5, -2.84, -2.87, -2.33, -2.33, -1.69, -1.69, -1.14, -1.15, -1.15, -1.16, -1.12, -1.16, -1.58, -1.52, -1.2, -1.11, -1.16, -1.13, -1.13, -1.8, -1.23, -1.11, -1.84, -1.88, -1.9, -1.26, -1.2, -1.7, -1.86, -0.4, 0.0, 0.0, 0.0, -0.0, 0.0, -1.2, -2.54, -3.97, -2.91, -1.49, 0.0, -2.33, -7.11, -8.36, -6.31, -3.07, -1.84, -2.21, -3.82, -8.22, -10.02, -10.41, -8.15, -6.34, -2.66, -1.94, -1.27, -1.16, -0.65, 0.0, 0.0, 0.64, 1.32, 1.28, 1.28, -8.19, -8.19, -8.19, -8.19, -8.19, -8.19, -8.19, -7.9, -7.9, -7.9, -8.22, -8.22, -8.22, -8.24, -8.24, -8.24, -8.24, -7.95, -8.24, -8.24, -7.6, -7.6, -7.6, -7.33, -6.94, -6.94, -6.53, -5.86, -4.68, -4.05, -4.17, -4.02, -3.37, -2.84, -2.87, -2.33, -2.33, -1.69, -1.69, -1.14, -1.15, -1.15, -1.1, -1.11, -1.75, -2.28, -2.28, -1.14, -0.58, -0.55, -1.13, -1.13, -1.84, -1.84, -2.21, -1.88, -1.9, -1.58, -1.86, -1.86, -1.2, -1.2, 0.0, 0.0, 0.0, 0.0, -0.45, -1.34, -2.23, -3.2, -2.68, -1.2, -1.79, -0.96, 0.0, -3.87, -7.58, -6.97, -4.71, -3.4, -2.0, -1.35, -2.07, -4.75, -6.32, -6.64, -6.06, -5.08, -2.2, -1.41, -1.27, -1.16, -0.61, 0.0, 0.64, 0.67, 0.71, 0.71, -7.86, -7.86, -8.19, -8.19, -8.19, -8.19, -8.19, -7.9, -7.9, -7.9, -7.9, -8.22, -8.22, -7.93, -7.93, -8.24, -8.24, -8.24, -7.61, -7.61, -7.6, -7.6, -7.6, -7.22, -6.94, -6.7, -6.29, -6.29, -5.64, -4.68, -3.91, -3.42, -2.87, -2.87, -2.33, -2.33, -2.23, -1.69, -1.69, -1.69, -1.14, -1.15, -1.15, -1.16, -1.73, -1.73, -1.71, -1.11, -1.14, -1.73, -1.67, -1.73, -1.76, -1.8, -2.23, -1.88, -1.9, -1.86, -1.58, -1.58, -1.86, 0.0, 0.0, 0.0, 0.0, 0.0, 0.0, -0.63, -1.58, -2.23, -0.63, 0.63, -0.89, -3.49, -3.82, -3.13, -3.88, -3.2, -1.9, -1.3, -0.69, 0.0, 0.0, 0.0, -2.28, -3.61, -4.57, -4.57, -3.06, -2.26, -1.47, -0.61, -0.65, -0.59, -0.61, 0.0, 0.0, 0.0, -7.86, -7.86, -7.86, -7.86, -8.19, -8.19, -8.19, -7.9, -7.9, -7.9, -7.9, -7.9, -8.22, -7.93, -7.93, -7.93, -7.61, -7.61, -7.61, -7.61, -7.33, -6.96, -6.96, -6.96, -6.96, -6.29, -6.29, -6.29, -6.27, -5.17, -3.89, -3.42, -2.9, -2.35, -2.23, -2.23, -1.69, -1.69, -1.69, -1.69, -1.69, -1.71, -1.71, -1.71, -1.63, -1.71, -1.71, -1.73, -2.3, -2.33, -2.23, -2.29, -2.32, -2.36, -2.2, -2.22, -1.6, -1.88, -1.58, -1.58, -1.26, -1.26, 0.0, 0.0, 0.0, 0.0, 0.0, 0.0, -0.89, -0.89, 0.0, 0.95, -0.57, -6.01, -7.79, -4.66, -0.75, 0.65, 1.4, 0.67, 0.0, 0.0, 0.0, -0.68, -1.36, -2.34, -3.53, -4.07, -3.53, -2.83, -0.63, 0.54, 0.0, -0.61, -1.23, -0.67, -0.65, -0.65, -7.86, -7.86, -7.86, -7.86, -7.86, -7.86, -7.86, -7.6, -7.6, -7.6, -7.6, -7.6, -7.6, -7.32, -7.32, -7.61, -7.61, -7.61, -7.33, -7.33, -7.24, -6.96, -6.96, -6.96, -6.56, -6.56, -6.29, -5.86, -5.86, -5.17, -4.72, -3.39, -3.39, -2.75, -2.23, -2.23, -2.23, -1.69, -1.69, -1.69, -1.69, -1.71, -1.71, -1.71, -1.71, -1.71, -2.25, -2.28, -2.28, -2.83, -2.86, -2.89, -2.92, -2.96, -2.8, -2.36, -2.2, -1.8, -1.84, -1.9, -1.86, -1.58, 0.0, 0.0, 0.0, 0.0, 0.0, -0.45, -1.2, -1.2, -0.45, 0.0, -0.98, -3.85, -6.2, -3.78, 1.46, 4.81, 4.81, 2.31, 0.0, -2.1, -2.76, -2.87, -2.72, -3.5, -3.58, -3.66, -2.95, -0.74, 1.27, 2.5, 1.24, 0.0, -0.66, -1.3, -1.4, -1.4, -8.15, -8.15, -7.86, -7.59, -7.59, -7.59, -7.59, -7.3, -7.3, -7.6, -7.6, -7.6, -7.6, -7.32, -7.32, -7.32, -7.61, -7.61, -7.33, -6.97, -6.97, -6.7, -6.7, -6.31, -6.31, -6.31, -6.31, -5.89, -5.89, -5.2, -4.72, -4.54, -4.05, -3.39, -2.87, -2.33, -2.23, -2.23, -1.69, -1.69, -1.71, -1.71, -1.1, -1.15, -1.71, -1.79, -2.35, -2.77, -2.8, -3.49, -3.52, -3.56, -3.6, -3.4, -3.42, -3.0, -2.82, -2.4, -2.48, -2.21, -2.21, -1.58, -1.26, 0.0, 0.0, 0.0, 0.0, -0.45, -0.89, -1.2, -1.2, -0.89, 0.0, 0.0, -1.55, -1.6, 0.77, 2.39, 2.35, 0.0, -1.4, -3.47, -4.23, -4.23, -3.39, -3.53, -2.88, -2.11, -0.67, 1.23, 2.86, 3.16, 2.15, 0.76, 0.0, -0.7, -1.36, -1.36, -7.55, -7.55, -7.59, -7.59, -7.59, -7.59, -7.59, -7.3, -7.3, -7.3, -7.6, -7.6, -6.98, -6.98, -6.98, -6.98, -6.98, -6.98, -6.97, -6.97, -6.97, -6.97, -6.31, -6.31, -6.31, -6.31, -5.89, -5.67, -5.67, -5.23, -5.0, -4.54, -4.54, -4.05, -3.39, -2.87, -2.87, -2.23, -2.23, -2.35, -1.71, -1.73, -1.65, -0.74, -1.11, -1.71, -2.75, -3.42, -3.45, -3.97, -4.0, -4.03, -4.05, -3.83, -3.64, -3.42, -2.8, -2.82, -2.23, -2.23, -2.53, -2.53, -1.58, 0.0, 0.0, 0.0, 0.0, 0.0, -0.89, -1.34, -1.6, -0.4, 0.95, 1.14, 0.0, -2.31, -3.07, -3.96, -4.66, -4.87, -4.31, -3.53, -3.33, -3.6, -3.33, -2.75, -1.36, 0.0, 0.63, 1.76, 2.73, 2.73, 2.0, 1.27, 0.0, 0.0, -0.72, -0.64, -7.55, -7.55, -7.55, -7.27, -7.27, -7.59, -7.59, -7.59, -7.3, -7.3, -7.3, -6.98, -6.7, -6.98, -6.98, -6.98, -6.98, -6.98, -6.98, -6.71, -6.97, -6.58, -6.58, -6.31, -6.31, -5.89, -5.67, -5.67, -5.67, -5.23, -5.23, -5.23, -4.76, -4.57, -4.08, -3.89, -3.39, -3.25, -2.9, -2.9, -2.77, -2.28, -2.33, -1.58, -1.12, -1.69, -3.53, -4.57, -4.6, -4.63, -4.44, -4.03, -4.05, -3.83, -4.08, -3.42, -3.45, -2.82, -2.86, -2.84, -2.84, -2.79, -2.21, 0.0, 0.0, 0.0, -1.58, -0.63, -1.34, -1.34, -1.2, -0.6, 0.0, 0.0, -0.78, -1.55, -3.78, -6.09, -7.93, -7.84, -5.6, -3.61, -2.75, -2.12, -1.35, 0.0, 0.0, 0.7, 1.35, 1.35, 1.94, 1.94, 1.94, 1.41, 0.0, 0.0, 0.0, -0.72, -7.55, -7.55, -7.55, -7.27, -7.27, -7.27, -7.27, -7.59, -7.3, -6.98, -6.98, -6.98, -6.98, -6.7, -6.98, -6.98, -6.98, -6.98, -6.98, -6.71, -6.33, -6.33, -6.33, -6.31, -6.31, -5.67, -5.67, -5.67, -5.67, -5.67, -5.23, -5.02, -5.02, -4.57, -4.57, -4.57, -4.08, -4.08, -3.42, -3.42, -3.45, -3.3, -3.52, -2.89, -2.35, -2.87, -4.68, -5.23, -5.29, -4.66, -4.44, -4.03, -4.05, -3.83, -4.08, -3.68, -3.45, -3.22, -2.86, -2.86, -3.16, -2.84, -2.21, -1.2, -1.58, -1.2, -0.6, -1.2, -1.34, -1.34, -0.89, -0.63, -2.24, -2.41, -1.09, 0.76, 0.75, -1.47, -5.4, -6.07, -4.92, -2.76, -2.12, 0.0, 0.63, 1.35, 1.36, 1.36, 1.41, 1.41, 1.19, 1.19, 1.3, 0.79, 0.0, 0.0, -0.67, 0.0, -7.55, -7.55, -7.55, -7.27, -7.27, -7.27, -6.97, -6.97, -6.98, -6.69, -6.98, -6.98, -6.98, -6.7, -6.7, -6.7, -6.98, -6.98, -6.61, -6.33, -6.33, -6.33, -6.33, -6.33, -6.07, -5.67, -5.67, -5.67, -5.67, -5.67, -5.23, -5.02, -5.26, -5.26, -5.26, -4.8, -4.57, -4.38, -3.91, -4.12, -3.94, -3.94, -3.97, -4.66, -5.06, -5.2, -4.76, -4.66, -4.71, -4.45, -4.45, -4.45, -4.05, -3.83, -4.08, -4.1, -3.85, -3.49, -3.49, -3.48, -3.48, -3.43, -3.72, -2.53, -1.4, -1.4, -0.8, -1.4, -1.2, -0.89, -0.45, -0.89, -2.68, -3.47, -1.4, 0.0, 1.43, 0.0, -2.28, -4.0, -2.8, -1.23, 0.0, 0.69, 1.32, 1.32, 0.67, 0.67, 1.32, 1.36, 1.41, 0.72, 0.69, 0.0, 0.0, 0.0, -0.74, -0.74, -7.55, -7.55, -7.55, -7.27, -7.27, -6.97, -6.97, -6.97, -6.69, -6.69, -6.69, -6.98, -6.98, -6.7, -6.7, -6.34, -6.34, -6.61, -6.61, -6.33, -6.33, -6.33, -6.33, -6.33, -6.33, -5.67, -5.67, -5.67, -5.67, -5.67, -5.67, -5.92, -5.26, -5.26, -5.26, -5.26, -5.04, -4.6, -4.6, -4.6, -4.6, -4.4, -4.63, -5.06, -5.67, -5.86, -3.91, -3.37, -3.42, -3.84, -4.08, -4.05, -4.05, -4.05, -4.08, -4.08, -4.12, -4.12, -3.83, -3.79, -3.79, -3.48, -2.84, -2.84, -1.4, -1.4, 0.0, -1.2, 0.0, 0.0, 0.0, -0.89, -2.68, -3.58, -3.9, -3.48, -2.26, -2.23, -2.26, -1.27, 0.0, 0.59, 2.06, 2.11, 1.33, 0.74, 0.71, 0.0, 0.0, 0.0, 0.0, 0.0, 0.0, 0.0, -0.77, -1.52, -1.52, -1.52, -7.55, -7.55, -7.55, -7.27, -6.97, -6.97, -6.97, -6.97, -6.97, -6.69, -6.69, -6.69, -6.98, -6.7, -6.34, -6.34, -6.34, -6.34, -6.61, -6.33, -6.33, -6.33, -6.33, -6.33, -6.33, -6.33, -6.33, -5.92, -5.92, -5.92, -5.92, -5.92, -5.69, -5.69, -5.26, -5.04, -5.04, -5.04, -5.04, -5.04, -5.04, -5.04, -5.04, -5.04, -5.26, -5.23, -4.12, -2.86, -2.92, -3.42, -3.68, -3.84, -4.08, -4.47, -4.47, -4.47, -4.39, -4.12, -4.12, -4.11, -4.07, -4.07, -3.78, -3.16, -1.4, 0.0, 0.0, 0.0, 0.63, 0.89, 0.0, -1.2, -2.68, -3.97, -6.55, -6.64, -5.37, -3.09, -0.71, 1.41, 5.49, 7.02, 6.4, 4.17, 2.06, 1.33, 0.71, 0.0, 0.0, 0.0, 0.0, -0.69, -0.67, -1.6, -1.47, -2.17, -2.17, -2.17, -7.55, -7.55, -7.55, -7.27, -6.97, -6.97, -6.97, -6.97, -6.97, -6.69, -6.69, -6.69, -6.69, -6.98, -6.34, -6.34, -6.34, -6.34, -6.61, -6.61, -6.33, -6.33, -6.33, -6.33, -6.33, -6.33, -6.33, -6.33, -6.33, -5.92, -5.92, -5.92, -5.69, -5.69, -5.69, -5.04, -5.04, -5.04, -5.04, -5.04, -5.04, -5.29, -5.29, -5.04, -5.04, -4.6, -3.94, -3.97, -3.35, -3.6, -3.42, -3.45, -3.85, -4.1, -4.75, -4.75, -4.47, -4.45, -4.43, -4.43, -4.11, -4.07, -4.07, -3.16, -2.23, 0.0, 0.0, 0.6, 1.2, 0.89, 0.0, -1.7, -3.04, -5.16, -5.43, -3.84, -2.07, -0.79, 0.0, 4.68, 9.95, 11.45, 8.68, 5.01, 2.85, 2.06, 1.43, 0.0, -0.69, -0.72, -1.05, -1.36, -1.55, -2.23, -2.23, -2.23, -2.23, -2.23, -7.55, -7.55, -7.55, -7.55, -6.97, -6.97, -6.97, -6.97, -6.97, -6.69, -6.69, -6.69, -6.69, -6.98, -6.7, -6.7, -6.34, -6.34, -6.61, -6.61, -6.33, -6.33, -6.33, -6.33, -6.33, -6.33, -6.33, -6.33, -6.33, -6.33, -5.92, -5.92, -5.69, -5.69, -5.69, -5.29, -5.29, -5.29, -5.29, -5.29, -5.29, -5.29, -5.29, -5.29, -5.29, -4.84, -4.63, -4.42, -4.0, -4.03, -4.05, -3.42, -3.85, -3.85, -4.47, -4.47, -4.75, -4.75, -4.74, -4.43, -4.11, -4.11, -4.07, -3.48, -2.51, -1.13, 0.0, 0.0, 0.0, 0.0, -1.2, -2.12, -2.6, -3.32, -2.5, -1.2, 0.0, 0.0, 1.54, 6.05, 10.12, 10.35, 7.28, 4.95, 4.17, 2.71, 1.36, 0.0, -0.74, -2.06, -2.12, -1.94, -2.2, -2.9, -3.09, -3.09, -3.09, -3.09, -7.55, -7.55, -7.55, -7.55, -6.97, -6.97, -6.97, -6.97, -6.97, -6.97, -6.69, -6.69, -6.69, -6.98, -6.98, -6.7, -6.7, -6.7, -6.98, -6.98, -6.98, -6.71, -6.71, -6.71, -6.33, -6.33, -6.33, -6.33, -6.33, -6.33, -6.33, -5.92, -5.69, -5.69, -5.95, -5.7, -5.29, -5.29, -5.29, -5.29, -5.29, -5.29, -5.29, -5.06, -5.06, -5.06, -4.63, -4.66, -4.44, -4.44, -4.03, -4.05, -3.84, -3.85, -4.45, -4.75, -4.75, -4.75, -4.74, -4.74, -4.71, -4.11, -4.07, -3.48, -2.86, -1.27, 0.0, 0.0, 0.0, -0.6, -1.49, -2.12, -2.12, -1.86, -1.24, 0.0, 0.0, 0.0, 3.09, 5.69, 6.88, 7.11, 7.11, 7.13, 6.34, 3.47, 0.71, -0.67, -0.76, -1.8, -2.07, -2.73, -2.66, -2.8, -3.0, -2.72, -2.72, -2.72, -7.55, -7.55, -7.55, -7.55, -6.97, -6.97, -6.97, -6.97, -6.97, -6.97, -6.69, -6.69, -6.69, -6.98, -6.98, -6.7, -6.7, -6.7, -6.98, -6.98, -6.98, -6.98, -6.71, -6.71, -6.71, -6.71, -6.33, -6.33, -6.33, -6.33, -6.33, -6.08, -5.69, -5.69, -5.95, -5.7, -5.7, -5.29, -5.29, -5.29, -5.29, -5.06, -5.06, -5.06, -5.06, -5.06, -5.08, -4.66, -4.44, -4.69, -4.45, -4.71, -3.83, -3.84, -4.12, -4.74, -4.74, -4.74, -4.74, -4.43, -4.71, -4.11, -4.07, -3.48, -2.86, -2.48, -1.27, 0.0, 0.0, 0.0, -0.6, -1.34, -1.79, -1.6, -1.26, -0.57, 0.0, 0.0, 3.22, 4.74, 4.56, 4.58, 8.03, 10.17, 8.65, 4.17, 0.7, -0.69, -0.57, -0.59, -2.07, -2.79, -2.73, -3.38, -3.32, -3.55, -3.55, -3.55, -7.55, -7.55, -7.55, -7.55, -7.27, -6.97, -6.97, -6.97, -6.97, -6.97, -6.69, -6.69, -6.69, -6.98, -6.98, -6.7, -6.7, -6.7, -6.98, -6.98, -6.98, -6.98, -6.98, -6.71, -6.71, -6.71, -6.33, -6.33, -6.33, -6.33, -6.08, -6.08, -5.69, -5.95, -5.95, -5.7, -5.7, -5.7, -5.29, -5.29, -5.29, -5.06, -5.06, -5.06, -5.32, -5.32, -5.08, -4.66, -4.69, -4.69, -4.45, -4.71, -4.46, -4.47, -4.12, -4.12, -4.12, -4.43, -4.71, -4.71, -4.71, -4.11, -4.07, -3.48, -3.16, -2.41, -1.74, -0.99, 0.0, 0.0, 0.0, -0.8, -1.7, -1.7, -1.6, -1.26, -0.71, 0.0, 1.2, 2.3, 2.88, 3.91, 6.97, 8.72, 6.42, 3.53, 0.0, -0.59, 0.0, 0.0, -0.63, -1.8, -3.16, -3.43, -3.12, -3.32, -3.32, -3.32, -7.55, -7.55, -7.55, -7.55, -7.27, -7.27, -6.97, -6.97, -6.97, -6.97, -6.97, -6.69, -6.98, -6.98, -6.98, -6.98, -6.7, -6.7, -6.7, -6.98, -6.98, -6.98, -6.98, -6.98, -6.61, -6.61, -6.61, -6.61, -6.34, -6.34, -6.34, -6.34, -5.95, -5.95, -5.7, -5.7, -5.7, -5.7, -5.7, -5.29, -5.29, -5.06, -5.06, -5.32, -5.32, -5.08, -5.08, -4.69, -4.69, -4.69, -4.45, -4.71, -4.71, -4.47, -4.47, -3.85, -4.12, -4.12, -4.11, -4.37, -4.37, -4.11, -4.07, -4.07, -3.73, -3.16, -2.53, -1.49, 0.0, 0.0, 0.0, 0.0, -0.57, -1.7, -1.7, -1.7, -1.26, 0.0, 0.0, 1.2, 1.49, 2.98, 4.36, 4.6, 3.1, 0.0, 0.0, -0.59, -1.16, -0.57, 0.0, -0.67, -2.48, -2.79, -3.48, -3.72, -3.72, -3.72, -7.55, -7.55, -7.55, -7.55, -7.27, -7.27, -7.27, -6.97, -6.97, -6.97, -6.97, -6.69, -6.98, -6.98, -6.98, -6.98, -6.98, -6.7, -6.7, -6.7, -6.7, -6.98, -6.61, -6.61, -6.61, -6.34, -6.34, -6.34, -6.34, -6.34, -6.34, -5.95, -5.95, -5.7, -5.7, -5.7, -5.7, -5.7, -5.7, -5.7, -5.29, -5.06, -5.06, -5.32, -5.08, -5.08, -5.09, -4.69, -4.69, -4.45, -4.71, -4.71, -4.71, -4.73, -4.47, -4.75, -4.47, -4.12, -4.12, -4.11, -4.11, -4.11, -4.07, -4.07, -4.07, -3.73, -3.22, -2.6, -1.6, -1.2, -0.95, 0.0, -0.71, -1.24, -1.26, -1.7, -1.2, 0.0, 0.0, 0.0, 0.65, 2.15, 2.3, 1.58, -0.71, -0.72, -0.69, -0.59, -1.2, -1.84, -1.23, -1.23, -1.47, -2.51, -2.51, -3.16, -3.16, -3.16, -7.55, -7.55, -7.55, -7.55, -7.55, -7.27, -7.27, -7.27, -6.97, -6.97, -6.97, -6.97, -6.69, -6.98, -6.98, -6.98, -6.98, -6.98, -6.7, -6.7, -6.7, -6.34, -6.34, -6.34, -6.34, -6.34, -6.34, -6.34, -6.34, -6.34, -6.34, -5.95, -5.7, -5.7, -5.7, -5.7, -5.7, -5.7, -5.7, -5.7, -5.7, -5.7, -5.06, -5.32, -5.32, -5.08, -5.09, -5.09, -4.45, -4.71, -4.71, -4.71, -4.46, -4.73, -4.73, -4.47, -4.75, -4.47, -4.12, -4.12, -3.83, -4.11, -4.11, -4.11, -4.37, -4.65, -3.58, -3.2, -2.12, -1.79, -1.79, -2.17, -2.23, -2.23, -1.58, -1.7, -0.89, 0.0, 0.0, 0.0, 0.0, 1.2, 1.33, -1.54, -1.43, -1.42, -0.68, 0.0, -1.16, -2.21, -2.51, -2.72, -1.98, -2.0, -2.51, -2.51, -2.51, -2.51, -7.55, -7.55, -7.55, -7.55, -7.55, -7.27, -7.27, -7.27, -7.27, -6.97, -6.97, -6.97, -6.97, -6.69, -6.98, -6.98, -6.98, -6.98, -6.98, -6.7, -6.34, -6.34, -6.34, -6.34, -6.34, -6.34, -6.34, -6.34, -6.34, -6.34, -5.7, -5.7, -5.7, -5.7, -5.7, -5.7, -5.7, -5.7, -5.7, -5.7, -5.7, -5.46, -5.72, -5.32, -5.32, -5.08, -5.09, -5.09, -5.1, -4.71, -4.71, -4.71, -4.73, -4.73, -4.47, -4.47, -4.75, -4.75, -4.47, -4.45, -3.84, -4.12, -4.71, -4.71, -4.71, -4.94, -4.65, -4.37, -2.12, -2.24, -2.68, -3.58, -3.51, -2.24, -1.79, -1.79, -1.34, -0.89, -0.63, -0.63, 0.0, 0.0, 0.73, 0.0, 0.0, 0.0, -0.67, -0.71, -1.13, -2.53, -3.16, -3.47, -3.09, -2.11, -2.0, -2.79, -2.79, -2.79, -7.55, -7.55, -7.55, -7.55, -7.55, -7.55, -7.27, -7.27, -7.27, -6.97, -6.97, -6.97, -6.97, -6.97, -6.69, -6.69, -6.69, -6.98, -6.98, -6.63, -6.34, -6.34, -6.34, -6.34, -6.34, -6.34, -6.34, -6.08, -6.08, -6.08, -5.7, -5.7, -5.7, -5.7, -5.7, -5.7, -5.7, -5.98, -5.7, -5.7, -5.46, -5.72, -5.72, -5.72, -5.08, -5.08, -5.09, -5.09, -5.1, -4.71, -4.71, -4.46, -4.73, -4.47, -4.47, -4.75, -4.75, -4.75, -4.75, -4.47, -4.45, -4.45, -4.43, -4.43, -5.05, -5.29, -5.29, -4.65, -2.8, -2.4, -2.8, -2.6, -2.24, -1.34, -0.0, -0.89, -2.24, -2.24, -2.24, -1.34, -0.89, -0.63, 0.0, 0.73, 0.78, 0.0, 0.0, -0.76, -1.84, -3.14, -4.11, -4.61, -3.6, -2.8, -1.94, -2.2, -2.2, -2.2, -7.55, -7.55, -7.55, -7.55, -7.55, -7.55, -7.55, -7.27, -7.27, -6.97, -6.97, -6.97, -6.97, -6.97, -6.97, -6.69, -6.69, -6.69, -6.69, -6.35, -6.35, -6.63, -6.34, -6.34, -6.34, -6.08, -6.08, -6.08, -6.08, -5.7, -5.7, -5.7, -5.7, -5.7, -5.7, -5.98, -5.98, -5.72, -5.72, -5.72, -5.72, -5.72, -5.72, -5.32, -5.08, -5.34, -5.09, -5.09, -5.1, -5.1, -4.46, -4.73, -4.73, -4.47, -4.47, -4.75, -4.75, -4.75, -4.75, -4.47, -4.47, -4.75, -4.74, -4.74, -5.01, -5.01, -5.29, -5.58, -5.21, -3.22, -2.23, -1.86, -1.2, 0.0, 0.45, 0.0, -0.45, -2.68, -2.68, -2.68, -2.17, -1.86, -1.16, -0.74, 0.0, 0.0, -0.65, -0.63, -1.88, -3.32, -4.66, -4.71, -3.47, -3.0, -2.66, -2.88, -2.88, -2.88, -7.23, -7.23, -7.23, -7.55, -7.55, -7.55, -7.55, -7.55, -7.27, -6.97, -6.97, -6.97, -6.97, -6.97, -6.97, -6.97, -6.97, -6.69, -6.69, -6.35, -6.35, -6.35, -6.35, -6.08, -6.08, -6.08, -6.08, -6.08, -5.7, -5.7, -5.7, -5.7, -5.7, -5.98, -5.98, -5.98, -5.98, -5.72, -5.72, -5.72, -5.72, -5.72, -5.32, -5.08, -5.34, -5.34, -5.09, -5.09, -5.1, -5.1, -4.46, -4.73, -4.73, -4.47, -4.47, -4.75, -4.75, -4.75, -4.75, -4.75, -4.47, -4.75, -5.06, -5.35, -5.35, -5.35, -5.35, -5.86, -5.49, -3.83, -2.23, -1.86, -1.7, -0.45, -0.45, -0.45, -0.63, -1.79, -2.68, -2.6, -2.63, -2.68, -2.86, -2.73, -2.18, -1.44, -0.67, 0.0, -0.51, -2.4, -3.53, -3.45, -3.43, -2.9, -3.11, -1.49, -1.49, -1.49, -7.23, -7.23, -7.23, -7.23, -7.23, -7.23, -7.55, -7.55, -7.27, -6.97, -6.97, -6.97, -6.97, -6.97, -6.97, -6.97, -6.97, -6.97, -6.35, -6.35, -6.35, -6.35, -6.35, -6.35, -6.08, -6.08, -6.08, -5.7, -5.7, -5.7, -5.7, -5.7, -5.98, -5.98, -5.98, -5.72, -5.72, -5.72, -5.72, -5.72, -5.72, -5.32, -5.08, -5.08, -5.34, -5.34, -5.09, -5.36, -5.1, -5.1, -5.1, -4.73, -4.73, -4.47, -4.47, -4.75, -4.75, -4.75, -4.75, -5.08, -5.06, -5.06, -5.06, -5.06, -5.35, -5.35, -5.59, -5.59, -5.86, -4.8, -3.74, -2.6, -1.79, -1.79, -2.24, -2.68, -2.12, -1.7, -2.24, -2.17, -2.6, -2.68, -3.32, -3.72, -3.15, -2.28, -0.71, 0.0, 0.0, 0.0, -1.86, -2.63, -2.51, -2.11, -1.27, 0.0, 0.0, 0.0, -7.51, -7.51, -7.23, -7.23, -7.23, -7.23, -6.95, -6.95, -7.27, -7.27, -6.97, -6.97, -6.97, -6.97, -6.97, -6.97, -6.97, -6.97, -6.64, -6.64, -6.35, -6.35, -6.35, -6.35, -6.35, -6.35, -5.98, -5.98, -5.98, -5.98, -5.98, -5.98, -5.98, -5.98, -5.72, -5.72, -5.72, -5.72, -5.72, -5.72, -5.72, -5.08, -5.08, -5.08, -5.34, -5.09, -5.09, -5.36, -5.1, -5.1, -5.1, -5.1, -5.1, -5.1, -5.08, -5.08, -5.08, -5.08, -5.08, -5.08, -5.08, -5.37, -5.06, -5.06, -5.35, -5.59, -5.59, -5.65, -5.93, -5.86, -5.6, -2.6, -2.24, -2.24, -2.68, -3.13, -2.68, -1.79, -0.89, -1.34, -1.79, -2.68, -3.32, -4.01, -3.88, -2.34, -0.8, 0.0, 0.0, 0.67, 0.0, -1.16, -1.88, -1.16, 0.0, 1.84, 1.84, 1.84, -7.51, -7.51, -7.51, -7.23, -6.95, -6.95, -6.95, -6.95, -6.95, -6.95, -6.95, -7.27, -6.67, -6.67, -6.67, -6.67, -6.67, -6.67, -6.35, -6.35, -6.35, -6.35, -6.35, -6.35, -6.35, -5.98, -5.98, -5.98, -5.98, -5.98, -5.98, -5.98, -5.72, -5.72, -5.72, -5.72, -5.72, -5.72, -5.72, -5.32, -5.08, -5.08, -5.08, -5.08, -5.34, -5.09, -5.09, -5.36, -5.1, -5.1, -5.38, -5.1, -5.1, -5.1, -5.38, -5.38, -5.08, -5.08, -5.08, -5.08, -5.08, -5.37, -5.37, -5.37, -5.65, -5.93, -5.93, -5.65, -5.98, -5.93, -5.75, -2.6, -2.24, -4.02, -2.24, -2.24, -2.24, -0.89, -0.89, -1.34, -1.79, -3.07, -4.0, -4.43, -3.7, -2.34, -0.77, 0.0, 0.7, 0.7, 0.69, 0.0, 0.0, 0.0, 1.13, 2.44, 2.44, 2.44, -7.51, -7.51, -7.51, -7.25, -6.95, -6.95, -6.95, -6.95, -6.95, -6.95, -6.95, -6.95, -6.95, -6.95, -6.95, -6.67, -6.67, -6.67, -6.35, -6.35, -6.35, -6.35, -6.08, -6.35, -6.35, -5.98, -5.98, -5.98, -5.98, -5.98, -5.72, -5.72, -5.72, -5.72, -5.72, -5.72, -5.72, -5.32, -5.32, -5.08, -5.08, -5.08, -5.08, -5.08, -5.34, -5.09, -5.09, -5.36, -5.36, -5.1, -5.38, -5.1, -5.1, -5.1, -5.38, -5.38, -5.38, -5.38, -5.08, -5.08, -5.08, -5.08, -5.65, -5.65, -5.65, -5.65, -5.65, -6.23, -6.23, -6.15, -5.49, -4.8, -3.87, -3.82, -1.79, -1.79, -1.7, -1.34, -1.34, -1.79, -2.68, -3.51, -4.93, -5.46, -4.71, -3.02, -0.76, 0.0, 0.75, 0.72, 1.54, 1.49, 1.41, 1.94, 2.11, 2.8, 2.8, 2.8, -7.51, -7.51, -7.51, -7.25, -6.95, -6.95, -6.95, -6.95, -6.95, -6.95, -6.95, -6.95, -6.95, -6.95, -6.95, -6.67, -6.67, -6.67, -6.35, -6.35, -6.35, -6.35, -6.08, -6.35, -6.35, -5.98, -5.98, -5.98, -5.98, -5.98, -5.72, -5.72, -5.72, -5.72, -5.72, -5.72, -5.72, -5.32, -5.32, -5.08, -5.08, -5.08, -5.08, -5.08, -5.34, -5.09, -5.09, -5.36, -5.36, -5.1, -5.38, -5.1, -5.1, -5.1, -5.38, -5.38, -5.38, -5.38, -5.08, -5.08, -5.08, -5.08, -5.65, -5.65, -5.65, -5.65, -5.65, -6.23, -6.23, -6.15, -5.49, -4.8, -3.87, -3.82, -1.79, -1.79, -1.7, -1.34, -1.34, -1.79, -2.68, -3.97, -4.93, -6.07, -5.3, -3.7, -1.54, 0.0, 0.75, 1.5, 2.21, 2.97, 3.15, 3.09, 2.9, 3.09, 3.09, 3.09]}]